FW6030 Weather Reports


time (UTC)temp
F
wind
direction
speed
knots
gust
knots
rain 1hr
in
rain 24hr
in
rain mn
in
humidity
%
barometer
mb
20260904081516 80 360 4.3 13.9 0.00 0.04 0.00 85 1013.9
20260904081437 80 360 4.3 13.9 0.00 0.04 0.00 85 1013.9
20260904081316 80 360 6.1 13.9 0.00 0.04 0.00 85 1013.9
20260904081217 80 360 6.1 13.9 0.00 0.04 0.00 85 1013.9
20260904081118 80 360 7.0 13.9 0.00 0.04 0.00 85 1013.9
20260904081020 80 360 6.1 13.9 0.00 0.04 0.00 85 1013.9
20260904080920 80 360 4.3 13.0 0.00 0.04 0.00 85 1014.0
20260904080825 80 360 4.3 13.0 0.00 0.04 0.00 85 1014.0
20260904080726 80 360 3.5 13.0 0.00 0.04 0.00 85 1013.9
20260904080626 80 360 4.3 13.0 0.00 0.04 0.00 85 1013.9
20260904080527 80 360 4.3 13.0 0.00 0.04 0.00 85 1013.9
20260904080427 80 360 3.5 10.4 0.00 0.04 0.00 85 1013.9
20260904080328 80 360 3.5 13.0 0.00 0.04 0.00 85 1014.0
20260904080230 80 186 3.5 13.0 0.00 0.04 0.00 85 1013.9
20260904080130 80 360 3.5 13.0 0.00 0.04 0.00 85 1014.0
20260904080051 80 360 4.3 13.0 0.00 0.04 0.00 85 1013.9
20260904075930 80 360 4.3 13.0 0.00 0.04 0.00 85 1013.9
20260904075832 80 360 5.2 13.0 0.00 0.04 0.00 85 1013.9
20260904075751 80 360 5.2 13.9 0.00 0.04 0.00 84 1013.9
20260904075630 80 360 7.0 13.9 0.00 0.04 0.00 84 1013.9
20260904075530 80 360 7.0 13.9 0.00 0.04 0.00 84 1013.9
20260904075434 80 360 6.1 13.9 0.00 0.04 0.00 85 1013.9
20260904075354 80 360 5.2 13.9 0.00 0.04 0.00 84 1013.9
20260904075255 80 360 6.1 13.9 0.00 0.04 0.00 84 1014.0
20260904075134 80 360 7.8 13.9 0.00 0.04 0.00 84 1013.9
20260904075035 80 360 7.8 13.9 0.00 0.04 0.00 84 1013.9
20260904074954 80 360 7.8 13.9 0.00 0.04 0.00 84 1013.9
20260904074834 80 360 6.1 13.9 0.00 0.04 0.00 84 1014.0
20260904074731 80 360 6.1 13.9 0.00 0.04 0.00 84 1013.9
20260904074631 80 360 6.1 13.9 0.00 0.04 0.00 84 1014.0
20260904074551 80 360 7.0 13.9 0.00 0.04 0.00 84 1013.9
20260904074435 80 360 7.8 13.9 0.00 0.04 0.00 84 1014.0
20260904074315 80 360 6.1 13.9 0.00 0.04 0.00 84 1014.0
20260904074216 80 360 5.2 13.9 0.00 0.04 0.00 84 1014.0
20260904074116 80 360 4.3 13.9 0.00 0.04 0.00 84 1014.1
20260904074037 80 360 5.2 13.9 0.00 0.04 0.00 84 1014.0
20260904073916 80 360 5.2 13.9 0.00 0.04 0.00 84 1014.1
20260904073817 80 360 6.1 13.0 0.00 0.04 0.00 84 1014.1
20260904073722 80 360 7.0 13.0 0.00 0.04 0.00 84 1014.1
20260904073622 80 360 7.8 13.0 0.00 0.04 0.00 84 1014.1
20260904073523 80 360 6.1 13.0 0.00 0.04 0.00 84 1014.2
20260904073425 80 360 4.3 14.8 0.00 0.04 0.00 84 1014.2
20260904073346 80 360 3.5 15.6 0.00 0.04 0.00 84 1014.2
20260904073225 80 360 4.3 15.6 0.00 0.04 0.00 84 1014.1
20260904073148 80 360 5.2 15.6 0.00 0.04 0.00 84 1014.1
20260904073032 80 360 5.2 15.6 0.00 0.04 0.00 84 1014.1
20260904072933 80 360 5.2 15.6 0.00 0.04 0.00 84 1014.1
20260904072816 80 360 6.1 15.6 0.00 0.04 0.00 84 1014.2
20260904072716 80 360 8.7 15.6 0.00 0.04 0.00 84 1014.2
20260904072617 80 360 7.8 15.6 0.00 0.04 0.00 84 1014.2
20260904072537 80 360 7.8 15.6 0.00 0.04 0.00 84 1014.1
20260904072419 80 360 7.8 15.6 0.00 0.04 0.00 84 1014.2
20260904072323 80 360 7.8 15.6 0.00 0.04 0.00 84 1014.2
20260904072244 80 175 8.7 15.6 0.00 0.04 0.00 84 1014.1
20260904072123 80 360 7.8 15.6 0.00 0.04 0.00 84 1014.1
20260904072024 80 360 6.1 11.3 0.00 0.04 0.00 84 1014.1
20260904071924 80 360 6.1 11.3 0.00 0.04 0.00 84 1014.1
20260904071826 80 360 6.1 11.3 0.00 0.04 0.00 84 1014.2
20260904071727 80 360 7.0 11.3 0.00 0.04 0.00 84 1014.2
20260904071631 80 360 6.1 11.3 0.00 0.04 0.00 84 1014.2
20260904071532 80 360 5.2 10.4 0.00 0.04 0.00 84 1014.2
20260904071434 80 360 3.5 10.4 0.00 0.04 0.00 83 1014.2
20260904071354 80 360 3.5 10.4 0.00 0.04 0.00 83 1014.3
20260904071233 80 360 4.3 10.4 0.00 0.04 0.00 83 1014.2
20260904071134 80 360 6.1 10.4 0.00 0.04 0.00 83 1014.3
20260904071056 80 360 6.1 10.4 0.00 0.04 0.00 83 1014.2
20260904070919 80 360 6.1 10.4 0.00 0.04 0.00 83 1014.3
20260904070839 80 360 4.3 10.4 0.00 0.04 0.00 83 1014.3
20260904070719 80 360 5.2 10.4 0.00 0.04 0.00 83 1014.2
20260904070621 80 360 4.3 10.4 0.00 0.04 0.00 83 1014.3
20260904070522 80 360 4.3 11.3 0.00 0.04 0.00 83 1014.3
20260904070443 80 360 4.3 11.3 0.00 0.04 0.00 83 1014.3
20260904070322 80 360 5.2 11.3 0.00 0.04 0.00 83 1014.3
20260904070223 80 360 6.1 11.3 0.00 0.04 0.00 83 1014.3
20260904070128 80 360 6.1 11.3 0.00 0.04 0.00 83 1014.3
20260904070029 80 360 6.1 12.2 0.00 0.04 0.00 83 1014.4
20260904065931 80 360 6.1 12.2 0.00 0.04 0.00 83 1014.4
20260904065833 80 360 6.1 12.2 0.00 0.04 0.00 83 1014.3
20260904065733 80 360 6.1 12.2 0.00 0.04 0.00 83 1014.3
20260904065634 80 360 6.1 12.2 0.00 0.04 0.00 83 1014.4
20260904065519 80 360 7.0 12.2 0.00 0.04 0.00 83 1014.4
20260904065418 80 360 6.1 11.3 0.00 0.04 0.00 83 1014.4
20260904065320 80 360 6.1 11.3 0.00 0.04 0.00 83 1014.4
20260904065221 80 360 5.2 11.3 0.00 0.04 0.00 83 1014.4
20260904065121 80 360 5.2 11.3 0.00 0.04 0.00 83 1014.4
20260904065021 80 360 5.2 12.2 0.00 0.04 0.00 83 1014.4
20260904064920 80 360 5.2 12.2 0.00 0.04 0.00 83 1014.4
20260904064825 80 360 4.3 13.0 0.00 0.04 0.00 83 1014.4
20260904064725 80 360 4.3 13.0 0.00 0.04 0.00 83 1014.4
20260904064645 80 360 4.3 13.0 0.00 0.04 0.00 83 1014.4
20260904064525 80 360 4.3 13.0 0.00 0.04 0.00 83 1014.4
20260904064446 80 360 6.1 13.0 0.00 0.04 0.00 83 1014.3
20260904064325 80 360 7.0 13.0 0.00 0.04 0.00 83 1014.3
20260904064247 80 360 7.0 16.5 0.00 0.04 0.00 83 1014.4
20260904064126 80 360 6.1 16.5 0.00 0.04 0.00 83 1014.4
20260904064026 80 360 4.3 16.5 0.00 0.04 0.00 83 1014.3
20260904063931 80 360 4.3 16.5 0.00 0.04 0.00 83 1014.3
20260904063832 80 360 4.3 16.5 0.00 0.04 0.00 83 1014.3
20260904063753 80 360 6.1 16.5 0.00 0.04 0.00 83 1014.3
20260904063653 80 360 6.1 16.5 0.00 0.04 0.00 83 1014.4
20260904063552 80 360 6.1 16.5 0.00 0.04 0.00 83 1014.3
20260904063431 80 360 6.1 11.3 0.00 0.04 0.00 83 1014.4
20260904063332 80 360 5.2 11.3 0.00 0.04 0.00 83 1014.4
20260904063252 80 360 5.2 11.3 0.00 0.04 0.00 83 1014.3
20260904063116 80 360 4.3 11.3 0.00 0.04 0.00 83 1014.4
20260904063016 80 360 5.2 11.3 0.00 0.04 0.00 83 1014.4
20260904062918 80 360 5.2 11.3 0.00 0.04 0.00 83 1014.4
20260904062820 80 360 6.1 11.3 0.00 0.04 0.00 83 1014.4
20260904062719 80 360 7.0 11.3 0.00 0.04 0.00 83 1014.3
20260904062619 80 360 7.8 11.3 0.00 0.04 0.00 83 1014.3
20260904062524 80 360 7.0 11.3 0.00 0.04 0.00 83 1014.3
20260904062444 80 360 6.1 11.3 0.00 0.04 0.00 83 1014.3
20260904062323 80 360 5.2 10.4 0.00 0.04 0.00 82 1014.3
20260904062223 80 360 5.2 10.4 0.00 0.04 0.00 82 1014.3
20260904062124 80 360 6.1 10.4 0.00 0.04 0.00 82 1014.3
20260904062024 80 360 6.1 10.4 0.00 0.04 0.00 82 1014.4
20260904061925 80 360 5.2 13.0 0.00 0.04 0.00 82 1014.3
20260904061830 80 360 5.2 13.0 0.00 0.04 0.00 82 1014.3
20260904061730 80 360 5.2 13.0 0.00 0.04 0.00 82 1014.3
20260904061630 80 360 5.2 13.0 0.00 0.04 0.00 82 1014.4
20260904061530 80 360 6.1 13.0 0.00 0.04 0.00 82 1014.3
20260904061431 80 360 6.1 13.0 0.00 0.04 0.00 82 1014.4
20260904061331 80 360 7.0 14.8 0.00 0.04 0.00 82 1014.3
20260904061251 80 360 7.0 14.8 0.00 0.04 0.00 82 1014.4
20260904061151 80 360 7.8 14.8 0.00 0.04 0.00 82 1014.4
20260904061034 80 360 7.0 14.8 0.00 0.04 0.00 82 1014.3
20260904060935 80 360 6.1 14.8 0.00 0.04 0.00 82 1014.4
20260904060854 80 360 7.0 14.8 0.00 0.04 0.00 82 1014.3
20260904060734 80 360 7.8 14.8 0.00 0.04 0.00 82 1014.4
20260904060655 80 360 8.7 14.8 0.00 0.04 0.00 82 1014.4
20260904060535 80 360 7.8 14.8 0.00 0.04 0.00 82 1014.4
20260904060435 80 360 7.8 16.5 0.00 0.04 0.00 82 1014.4
20260904060319 80 360 7.8 16.5 0.00 0.04 0.00 82 1014.4
20260904060219 80 360 7.0 16.5 0.00 0.04 0.00 82 1014.4
20260904060140 80 360 6.1 16.5 0.00 0.04 0.00 82 1014.3
20260904060020 80 360 5.2 16.5 0.00 0.04 0.00 82 1014.3
20260904055918 80 360 6.1 16.5 0.00 0.04 0.00 82 1014.4
20260904055820 80 360 7.8 16.5 0.00 0.04 0.00 81 1014.4
20260904055720 80 360 7.8 16.5 0.00 0.04 0.04 81 1014.4
20260904055626 80 360 8.7 16.5 0.00 0.04 0.04 81 1014.3
20260904055527 80 360 8.7 14.8 0.00 0.04 0.04 81 1014.3
20260904055427 80 360 8.7 14.8 0.00 0.04 0.04 81 1014.4
20260904055327 80 360 8.7 14.8 0.00 0.04 0.04 81 1014.4
20260904055228 80 360 8.7 14.8 0.00 0.04 0.04 81 1014.4
20260904055129 80 360 9.6 14.8 0.00 0.04 0.04 81 1014.4
20260904055030 80 360 9.6 14.8 0.00 0.04 0.04 81 1014.3
20260904054934 80 360 7.8 14.8 0.00 0.04 0.04 81 1014.4
20260904054835 80 360 7.8 15.6 0.00 0.04 0.04 81 1014.4
20260904054735 80 360 7.0 15.6 0.00 0.04 0.04 81 1014.4
20260904054635 80 360 8.7 15.6 0.00 0.04 0.04 81 1014.3
20260904054517 80 360 9.6 15.6 0.00 0.04 0.04 81 1014.4
20260904054437 80 360 8.7 17.4 0.00 0.04 0.04 81 1014.3
20260904054337 80 360 7.8 17.4 0.00 0.04 0.04 81 1014.3
20260904054220 80 360 7.8 18.2 0.00 0.04 0.04 81 1014.3
20260904054141 80 360 7.8 18.2 0.00 0.04 0.04 81 1014.3
20260904054021 80 360 8.7 18.2 0.00 0.04 0.04 81 1014.3
20260904053921 80 360 7.8 18.2 0.00 0.04 0.04 81 1014.3
20260904053822 80 360 7.8 18.2 0.00 0.04 0.04 81 1014.2
20260904053723 80 360 7.8 18.2 0.00 0.04 0.04 81 1014.2
20260904053624 80 360 8.7 18.2 0.00 0.04 0.04 81 1014.2
20260904053545 80 360 10.4 18.2 0.00 0.04 0.04 81 1014.2
20260904053448 80 360 11.3 18.2 0.00 0.04 0.04 81 1014.3
20260904053328 80 360 10.4 16.5 0.00 0.04 0.04 81 1014.2
20260904053248 80 360 9.6 15.6 0.00 0.04 0.04 81 1014.3
20260904053128 80 360 7.8 14.8 0.00 0.04 0.04 81 1014.1
20260904053028 80 360 7.8 16.5 0.00 0.04 0.04 81 1014.2
20260904052929 80 360 8.7 16.5 0.00 0.04 0.04 81 1014.3
20260904052830 80 360 8.7 16.5 0.00 0.04 0.04 81 1014.2
20260904052749 80 360 8.7 16.5 0.00 0.04 0.04 81 1014.2
20260904052633 80 360 7.8 16.5 0.00 0.04 0.04 81 1014.2
20260904052533 80 360 7.8 16.5 0.00 0.04 0.04 80 1014.2
20260904052434 80 360 7.8 16.5 0.00 0.04 0.04 80 1014.2
20260904052333 80 360 8.7 16.5 0.00 0.04 0.04 80 1014.2
20260904052254 80 360 8.7 16.5 0.00 0.04 0.04 80 1014.1
20260904052133 80 360 7.8 14.8 0.00 0.04 0.04 80 1014.2
20260904052054 80 360 7.8 14.8 0.00 0.04 0.04 80 1014.1
20260904051933 80 360 7.8 14.8 0.00 0.04 0.04 80 1014.1
20260904051817 80 360 8.7 15.6 0.00 0.04 0.04 80 1014.1
20260904051718 80 360 9.6 15.6 0.00 0.04 0.04 80 1014.1
20260904051639 80 360 9.6 15.6 0.00 0.04 0.04 80 1014.1
20260904051519 80 360 9.6 15.6 0.00 0.04 0.04 80 1014.1
20260904051417 80 360 9.6 15.6 0.00 0.04 0.04 80 1014.1
20260904051318 80 360 9.6 15.6 0.00 0.04 0.04 80 1014.1
20260904051218 80 180 9.6 15.6 0.00 0.04 0.04 80 1014.1
20260904051123 80 360 8.7 15.6 0.00 0.04 0.04 80 1014.1
20260904051044 80 360 8.7 15.6 0.00 0.04 0.04 80 1014.1
20260904050925 80 360 8.7 13.0 0.00 0.04 0.04 80 1014.1
20260904050825 80 360 8.7 13.0 0.00 0.04 0.04 80 1014.1
20260904050727 80 360 9.6 13.0 0.00 0.04 0.04 80 1014.1
20260904050628 80 360 8.7 13.0 0.00 0.04 0.04 80 1014.0
20260904050529 80 360 9.6 13.0 0.00 0.04 0.04 80 1014.1
20260904050432 80 360 9.6 13.0 0.00 0.04 0.04 80 1014.1
20260904050333 80 360 8.7 13.0 0.00 0.04 0.04 80 1014.1
20260904050234 80 360 9.6 13.0 0.00 0.04 0.04 80 1014.1
20260904050134 80 360 8.7 13.0 0.00 0.04 0.04 80 1014.1
20260904050036 80 360 8.7 13.0 0.00 0.04 0.04 80 1014.1
20260904045929 80 360 8.7 13.0 0.00 0.04 0.04 80 1014.2
20260904045832 80 360 8.7 13.0 0.00 0.04 0.04 80 1014.1
20260904045734 80 161 8.7 13.0 0.00 0.04 0.04 80 1014.2
20260904045635 80 360 8.7 13.0 0.00 0.04 0.04 80 1014.2
20260904045535 80 161 8.7 12.2 0.00 0.04 0.04 80 1014.2
20260904045435 80 180 8.7 12.2 0.00 0.04 0.04 80 1014.2
20260904045356 80 360 9.6 13.0 0.00 0.04 0.04 80 1014.2
20260904045235 80 360 9.6 18.2 0.00 0.04 0.04 80 1014.2
20260904045120 80 360 8.7 18.2 0.00 0.04 0.04 80 1014.1
20260904045020 80 360 8.7 18.2 0.00 0.04 0.04 80 1014.2
20260904044921 80 360 7.8 18.2 0.00 0.04 0.04 80 1014.1
20260904044823 80 360 7.8 18.2 0.00 0.04 0.04 80 1014.2
20260904044724 80 360 9.6 18.2 0.00 0.04 0.04 80 1014.1
20260904044624 80 360 11.3 18.2 0.00 0.04 0.04 80 1014.1
20260904044544 80 360 11.3 18.2 0.00 0.04 0.04 80 1014.1
20260904044445 80 360 10.4 17.4 0.00 0.04 0.04 80 1014.1
20260904044330 80 360 10.4 13.9 0.00 0.04 0.04 80 1014.1
20260904044230 80 360 9.6 13.9 0.00 0.04 0.04 80 1014.0
20260904044129 80 360 9.6 13.9 0.00 0.04 0.04 80 1014.0
20260904044030 80 360 9.6 13.9 0.00 0.04 0.04 80 1014.1
20260904043931 80 360 8.7 13.9 0.00 0.04 0.04 80 1014.0
20260904043832 80 360 7.8 13.9 0.00 0.04 0.04 80 1014.0
20260904043717 80 360 7.8 13.9 0.00 0.04 0.04 80 1014.0
20260904043617 80 360 7.8 13.9 0.00 0.04 0.04 80 1014.1
20260904043517 80 360 7.8 13.9 0.00 0.04 0.04 80 1014.1
20260904043418 80 360 8.7 13.9 0.00 0.04 0.04 80 1014.1
20260904043319 80 360 8.7 13.9 0.00 0.04 0.04 80 1014.1
20260904043220 80 360 8.7 13.9 0.00 0.04 0.04 80 1014.2
20260904043121 80 360 8.7 13.9 0.00 0.04 0.04 80 1014.1
20260904043025 80 360 7.8 12.2 0.00 0.04 0.04 80 1014.1
20260904042925 80 360 7.0 15.6 0.00 0.04 0.04 80 1014.1
20260904042828 80 360 7.8 15.6 0.00 0.04 0.04 80 1014.2
20260904042728 80 360 7.8 15.6 0.00 0.04 0.04 80 1014.2
20260904042629 80 360 7.8 15.6 0.00 0.04 0.04 80 1014.2
20260904042530 80 360 7.8 15.6 0.00 0.04 0.04 80 1014.2
20260904042434 80 360 7.8 15.6 0.00 0.04 0.04 80 1014.1
20260904042335 80 360 8.7 15.6 0.00 0.04 0.04 80 1014.1
20260904042235 80 360 10.4 15.6 0.00 0.04 0.04 80 1014.1
20260904042116 80 360 9.6 14.8 0.00 0.04 0.04 80 1014.2
20260904042017 80 360 9.6 14.8 0.00 0.04 0.04 80 1014.1
20260904041916 80 360 9.6 14.8 0.00 0.04 0.04 80 1014.1
20260904041821 80 360 8.7 14.8 0.00 0.04 0.04 80 1014.1
20260904041720 80 360 8.7 14.8 0.00 0.04 0.04 80 1014.1
20260904041621 80 360 8.7 14.8 0.00 0.04 0.04 80 1014.1
20260904041521 80 360 8.7 14.8 0.00 0.04 0.04 80 1014.1
20260904041441 80 360 9.6 14.8 0.00 0.04 0.04 79 1014.1
20260904041342 80 360 9.6 14.8 0.00 0.04 0.04 80 1014.1
20260904041220 80 360 8.7 14.8 0.00 0.04 0.04 80 1014.1
20260904041121 80 360 8.7 14.8 0.00 0.04 0.04 79 1014.1
20260904041026 80 360 7.8 14.8 0.00 0.04 0.04 79 1014.1
20260904040928 80 360 9.6 14.8 0.00 0.04 0.04 79 1014.1
20260904040828 80 360 10.4 14.8 0.00 0.04 0.04 79 1014.1
20260904040728 80 360 10.4 14.8 0.00 0.04 0.04 79 1014.1
20260904040628 80 360 9.6 14.8 0.00 0.04 0.04 79 1014.0
20260904040530 80 360 7.8 14.8 0.00 0.04 0.04 79 1014.1
20260904040430 80 360 7.8 14.8 0.00 0.04 0.04 79 1014.0
20260904040335 80 360 8.7 14.8 0.00 0.04 0.04 79 1014.0
20260904040216 80 360 9.6 18.2 0.00 0.04 0.04 79 1014.0
20260904040117 80 360 8.7 18.2 0.00 0.04 0.04 79 1014.1
20260904040017 80 360 8.7 18.2 0.00 0.04 0.04 79 1014.0
20260904035917 80 360 8.7 18.2 0.00 0.04 0.04 79 1014.0
20260904035819 81 360 9.6 18.2 0.00 0.04 0.04 79 1013.9
20260904035743 81 360 9.6 18.2 0.00 0.04 0.04 79 1014.0
20260904035623 81 360 10.4 18.2 0.00 0.04 0.04 79 1014.0
20260904035524 81 360 11.3 18.2 0.00 0.04 0.04 79 1014.0
20260904035423 81 360 11.3 18.2 0.00 0.04 0.04 79 1013.9
20260904035323 81 360 12.2 18.2 0.00 0.04 0.04 79 1014.0
20260904035224 81 360 11.3 16.5 0.00 0.04 0.04 79 1013.9
20260904035122 81 360 10.4 15.6 0.00 0.04 0.04 79 1014.0
20260904035023 81 360 10.4 15.6 0.00 0.04 0.04 79 1013.9
20260904034928 81 360 9.6 15.6 0.00 0.04 0.04 79 1013.9
20260904034828 81 360 10.4 15.6 0.00 0.04 0.04 78 1013.9
20260904034729 81 360 10.4 15.6 0.00 0.04 0.04 78 1014.0
20260904034629 81 360 11.3 15.6 0.00 0.04 0.04 78 1013.9
20260904034530 81 360 10.4 14.8 0.00 0.04 0.04 78 1013.9
20260904034430 81 360 10.4 14.8 0.00 0.04 0.04 78 1013.9
20260904034335 81 360 9.6 14.8 0.00 0.04 0.04 78 1013.9
20260904034236 81 360 9.6 14.8 0.00 0.04 0.04 78 1014.0
20260904034156 81 360 9.6 14.8 0.00 0.04 0.04 78 1013.9
20260904034035 81 360 9.6 14.8 0.00 0.04 0.04 78 1013.9
20260904033935 81 360 9.6 13.9 0.00 0.04 0.04 78 1014.0
20260904033836 81 360 8.7 13.9 0.00 0.04 0.04 78 1014.0
20260904033735 81 360 8.7 13.9 0.00 0.04 0.04 78 1014.0
20260904033619 81 360 7.8 13.9 0.00 0.04 0.04 78 1014.0
20260904033519 81 360 7.0 13.9 0.00 0.04 0.04 78 1014.0
20260904033440 81 360 7.0 13.9 0.00 0.04 0.04 78 1014.0
20260904033319 81 360 7.8 14.8 0.00 0.04 0.04 77 1014.0
20260904033219 81 360 8.7 14.8 0.00 0.04 0.04 77 1014.0
20260904033141 81 360 9.6 14.8 0.00 0.04 0.04 77 1013.9
20260904033021 81 360 9.6 14.8 0.00 0.04 0.04 77 1014.0
20260904032922 81 360 9.6 14.8 0.00 0.04 0.04 77 1014.0
20260904032827 81 360 9.6 14.8 0.00 0.04 0.04 77 1014.0
20260904032727 81 360 10.4 14.8 0.00 0.04 0.04 77 1014.0
20260904032629 81 360 11.3 14.8 0.00 0.04 0.04 77 1014.0
20260904032529 81 360 10.4 14.8 0.00 0.04 0.04 77 1014.0
20260904032429 81 360 9.6 14.8 0.00 0.04 0.04 77 1014.0
20260904032330 81 360 8.7 14.8 0.00 0.04 0.04 77 1014.0
20260904032235 81 360 7.8 14.8 0.00 0.04 0.04 77 1013.9
20260904032135 81 360 7.8 14.8 0.00 0.04 0.04 77 1013.9
20260904032017 81 360 7.8 14.8 0.00 0.04 0.04 77 1013.9
20260904031917 81 360 7.8 14.8 0.00 0.04 0.04 77 1013.9
20260904031818 81 360 8.7 14.8 0.00 0.04 0.04 77 1013.9
20260904031718 81 360 9.6 14.8 0.00 0.04 0.04 77 1013.9
20260904031623 81 360 8.7 14.8 0.00 0.04 0.04 77 1013.9
20260904031524 81 360 9.6 14.8 0.00 0.04 0.04 77 1013.8
20260904031446 81 360 9.6 14.8 0.00 0.04 0.04 77 1013.8
20260904031326 81 163 9.6 14.8 0.00 0.04 0.04 77 1013.8
20260904031246 81 360 9.6 14.8 0.00 0.04 0.04 77 1013.7
20260904031125 81 360 8.7 14.8 0.00 0.04 0.04 77 1013.8
20260904031026 81 360 9.6 14.8 0.00 0.04 0.04 77 1013.8
20260904030928 81 360 8.7 14.8 0.00 0.04 0.04 77 1013.7
20260904030852 81 360 8.7 14.8 0.00 0.04 0.04 76 1013.7
20260904030733 82 360 8.7 13.9 0.00 0.04 0.04 76 1013.7
20260904030654 82 360 7.8 13.9 0.00 0.04 0.04 76 1013.8
20260904030534 82 360 8.7 13.9 0.00 0.04 0.04 76 1013.7
20260904030434 82 360 9.6 13.9 0.00 0.04 0.04 76 1013.7
20260904030336 82 360 8.7 13.9 0.00 0.04 0.04 76 1013.7
20260904030235 82 158 7.8 13.9 0.00 0.04 0.04 76 1013.7
20260904030120 82 360 7.8 12.2 0.00 0.04 0.04 76 1013.6
20260904030040 82 360 7.8 12.2 0.00 0.04 0.04 76 1013.7
20260904025920 82 360 8.7 13.9 0.00 0.04 0.04 76 1013.7
20260904025821 82 360 8.7 15.6 0.00 0.04 0.04 76 1013.7
20260904025720 82 360 8.7 15.6 0.00 0.04 0.04 76 1013.7
20260904025621 82 360 7.0 15.6 0.00 0.04 0.04 76 1013.7
20260904025522 82 360 7.0 15.6 0.00 0.04 0.04 75 1013.7
20260904025426 82 360 7.0 15.6 0.00 0.04 0.04 75 1013.7
20260904025346 82 360 8.7 15.6 0.00 0.04 0.04 75 1013.7
20260904025226 82 360 10.4 15.6 0.00 0.04 0.04 75 1013.6
20260904025127 82 360 9.6 15.6 0.00 0.04 0.04 75 1013.6
20260904025048 82 360 10.4 15.6 0.00 0.04 0.04 75 1013.5
20260904024928 82 360 9.6 13.9 0.00 0.04 0.04 75 1013.6
20260904024849 82 360 9.6 13.9 0.00 0.04 0.04 75 1013.5
20260904024729 82 360 9.6 13.9 0.00 0.04 0.04 75 1013.5
20260904024633 82 360 9.6 13.9 0.00 0.04 0.04 75 1013.5
20260904024534 82 360 10.4 13.9 0.00 0.04 0.04 75 1013.5
20260904024433 82 360 8.7 14.8 0.00 0.04 0.04 75 1013.5
20260904024333 82 360 7.8 14.8 0.00 0.04 0.04 74 1013.5
20260904024252 82 360 7.8 14.8 0.00 0.04 0.04 74 1013.5
20260904024152 82 360 8.7 16.5 0.00 0.04 0.04 74 1013.4
20260904024031 82 360 9.6 16.5 0.00 0.04 0.04 74 1013.4
20260904023932 82 360 10.4 17.4 0.00 0.04 0.04 74 1013.3
20260904023831 82 360 11.3 18.2 0.00 0.04 0.04 74 1013.4
20260904023718 82 360 11.3 18.2 0.00 0.04 0.04 74 1013.4
20260904023639 82 360 10.4 18.2 0.00 0.04 0.04 74 1013.4
20260904023518 82 360 10.4 18.2 0.00 0.04 0.04 74 1013.3
20260904023418 82 360 11.3 18.2 0.00 0.04 0.04 74 1013.4
20260904023319 83 360 12.2 18.2 0.00 0.04 0.04 74 1013.3
20260904023220 83 360 12.2 18.2 0.00 0.04 0.04 74 1013.4
20260904023124 82 360 11.3 18.2 0.00 0.04 0.04 74 1013.4
20260904023024 83 360 10.4 18.2 0.00 0.04 0.04 74 1013.4
20260904022925 83 360 10.4 18.2 0.00 0.04 0.04 73 1013.4
20260904022826 83 360 11.3 18.2 0.00 0.04 0.04 73 1013.5
20260904022725 83 360 10.4 18.2 0.00 0.04 0.04 73 1013.4
20260904022645 83 360 11.3 15.6 0.00 0.04 0.04 73 1013.4
20260904022524 83 360 10.4 14.8 0.00 0.04 0.04 73 1013.4
20260904022430 83 360 10.4 15.6 0.00 0.04 0.04 73 1013.4
20260904022331 83 360 10.4 15.6 0.00 0.04 0.04 73 1013.3
20260904022231 83 360 8.7 15.6 0.00 0.04 0.04 73 1013.3
20260904022132 83 360 8.7 15.6 0.00 0.04 0.04 73 1013.3
20260904022031 83 360 9.6 15.6 0.00 0.04 0.04 72 1013.3
20260904021932 83 360 10.4 15.6 0.00 0.04 0.04 72 1013.2
20260904021817 83 360 10.4 15.6 0.00 0.04 0.04 72 1013.2
20260904021737 83 360 10.4 15.6 0.00 0.04 0.04 72 1013.2
20260904021616 83 360 11.3 15.6 0.00 0.04 0.04 72 1013.2
20260904021518 83 360 11.3 15.6 0.00 0.04 0.04 72 1013.2
20260904021418 83 360 9.6 15.6 0.00 0.04 0.04 72 1013.2
20260904021319 83 360 8.7 14.8 0.00 0.04 0.04 72 1013.2
20260904021240 83 360 7.0 13.9 0.00 0.04 0.04 72 1013.2
20260904021119 83 360 7.0 13.9 0.00 0.04 0.04 72 1013.2
20260904021023 83 360 8.7 13.9 0.00 0.04 0.04 72 1013.2
20260904020924 83 360 8.7 13.9 0.00 0.04 0.04 71 1013.2
20260904020825 83 360 9.6 13.9 0.00 0.04 0.04 71 1013.3
20260904020746 84 360 8.7 13.9 0.00 0.04 0.04 71 1013.2
20260904020645 84 360 7.8 12.2 0.00 0.04 0.04 71 1013.2
20260904020524 84 360 7.8 11.3 0.00 0.04 0.04 71 1013.2
20260904020425 84 360 7.8 11.3 0.00 0.04 0.04 71 1013.2
20260904020329 84 360 8.7 14.8 0.00 0.04 0.04 71 1013.2
20260904020230 84 360 8.7 14.8 0.00 0.04 0.04 71 1013.2
20260904020131 84 360 7.8 14.8 0.00 0.04 0.04 71 1013.2
20260904020030 84 360 7.8 14.8 0.00 0.04 0.04 71 1013.2
20260904015931 84 360 7.0 18.2 0.00 0.04 0.04 71 1013.1
20260904015834 84 360 7.8 18.2 0.00 0.04 0.04 71 1013.1
20260904015717 84 360 9.6 18.2 0.00 0.04 0.04 71 1013.1
20260904015618 84 360 10.4 18.2 0.00 0.04 0.04 71 1013.2
20260904015519 84 360 10.4 18.2 0.00 0.04 0.04 71 1013.0
20260904015440 84 360 8.7 18.2 0.00 0.04 0.04 71 1013.0
20260904015319 84 360 7.8 18.2 0.00 0.04 0.04 71 1013.0
20260904015220 84 360 8.7 18.2 0.00 0.04 0.04 70 1013.0
20260904015120 84 360 9.6 18.2 0.00 0.04 0.04 70 1013.0
20260904015025 84 360 10.4 18.2 0.00 0.04 0.04 70 1012.9
20260904014926 84 360 11.3 18.2 0.00 0.04 0.04 70 1012.9
20260904014827 84 360 11.3 18.2 0.00 0.04 0.04 70 1012.8
20260904014748 84 360 11.3 17.4 0.00 0.04 0.04 70 1012.9
20260904014627 84 360 11.3 17.4 0.00 0.04 0.04 70 1012.8
20260904014529 84 360 11.3 17.4 0.00 0.04 0.04 70 1012.8
20260904014428 84 360 11.3 17.4 0.00 0.04 0.04 70 1012.8
20260904014334 84 360 10.4 17.4 0.00 0.04 0.04 70 1012.7
20260904014234 84 360 10.4 17.4 0.00 0.04 0.04 70 1012.8
20260904014155 84 360 10.4 16.5 0.00 0.04 0.04 70 1012.7
20260904014035 84 360 10.4 16.5 0.00 0.04 0.04 70 1012.8
20260904013935 84 360 10.4 16.5 0.00 0.04 0.04 70 1012.8
20260904013856 84 360 10.4 16.5 0.00 0.04 0.04 70 1012.7
20260904013735 84 360 11.3 16.5 0.00 0.04 0.04 70 1012.7
20260904013616 84 360 10.4 16.5 0.00 0.04 0.04 69 1012.6
20260904013520 84 360 9.6 16.5 0.00 0.04 0.04 69 1012.5
20260904013420 84 360 8.7 15.6 0.00 0.04 0.04 69 1012.6
20260904013320 84 360 8.7 15.6 0.00 0.04 0.04 69 1012.5
20260904013220 85 360 9.6 15.6 0.00 0.04 0.04 69 1012.5
20260904013121 85 360 10.4 15.6 0.00 0.04 0.04 69 1012.5
20260904013021 85 360 11.3 15.6 0.00 0.04 0.04 69 1012.5
20260904012922 85 155 11.3 15.6 0.00 0.04 0.04 69 1012.6
20260904012827 85 360 11.3 18.2 0.00 0.04 0.04 69 1012.6
20260904012726 85 360 9.6 18.2 0.00 0.04 0.04 69 1012.6
20260904012627 85 360 8.7 18.2 0.00 0.04 0.04 69 1012.6
20260904012527 85 360 7.8 18.2 0.00 0.04 0.04 69 1012.5
20260904012428 85 360 8.7 18.2 0.00 0.04 0.04 68 1012.5
20260904012329 85 360 9.6 18.2 0.00 0.04 0.04 68 1012.6
20260904012233 85 360 9.6 18.2 0.00 0.04 0.04 68 1012.6
20260904012155 85 360 9.6 18.2 0.00 0.04 0.04 68 1012.5
20260904012034 85 360 8.7 18.2 0.00 0.04 0.04 68 1012.6
20260904011935 85 360 7.8 16.5 0.00 0.04 0.04 68 1012.5
20260904011835 85 360 8.7 16.5 0.00 0.04 0.04 68 1012.6
20260904011717 85 360 9.6 16.5 0.00 0.04 0.04 68 1012.6
20260904011616 85 360 9.6 16.5 0.00 0.04 0.04 68 1012.6
20260904011521 85 360 8.7 16.5 0.00 0.04 0.04 68 1012.6
20260904011422 85 360 10.4 16.5 0.00 0.04 0.04 68 1012.6
20260904011322 85 360 9.6 16.5 0.00 0.04 0.04 68 1012.6
20260904011224 85 360 10.4 16.5 0.00 0.04 0.04 68 1012.6
20260904011125 85 360 9.6 13.9 0.00 0.04 0.04 68 1012.6
20260904011026 85 360 9.6 13.0 0.00 0.04 0.04 68 1012.6
20260904010930 85 360 10.4 13.0 0.00 0.04 0.04 68 1012.6
20260904010832 85 360 9.6 13.9 0.00 0.04 0.04 68 1012.6
20260904010732 85 360 8.7 13.9 0.00 0.04 0.04 68 1012.6
20260904010633 85 360 7.8 17.4 0.00 0.04 0.04 68 1012.6
20260904010534 85 360 7.0 17.4 0.00 0.04 0.04 68 1012.6
20260904010435 85 360 7.8 17.4 0.00 0.04 0.04 68 1012.6
20260904010354 85 360 8.7 17.4 0.00 0.04 0.04 68 1012.5
20260904010218 85 360 8.7 17.4 0.00 0.04 0.04 68 1012.5
20260904010119 85 360 8.7 17.4 0.00 0.04 0.04 68 1012.6
20260904010019 85 360 9.6 17.4 0.00 0.04 0.04 68 1012.6
20260904005939 85 360 8.7 17.4 0.00 0.04 0.04 68 1012.6
20260904005821 86 360 8.7 17.4 0.00 0.04 0.04 68 1012.6
20260904005718 85 360 7.8 17.4 0.00 0.04 0.04 68 1012.5
20260904005639 86 360 6.1 15.6 0.00 0.04 0.04 68 1012.5
20260904005539 86 360 6.1 18.2 0.00 0.04 0.04 68 1012.5
20260904005443 86 360 6.1 18.2 0.00 0.04 0.04 68 1012.5
20260904005316 86 360 7.8 18.2 0.00 0.04 0.04 67 1012.6
20260904005216 86 360 7.8 18.2 0.00 0.04 0.04 67 1012.6
20260904005117 86 360 9.6 18.2 0.00 0.04 0.04 67 1012.5
20260904005017 86 360 9.6 18.2 0.00 0.04 0.04 67 1012.5
20260904004917 86 360 11.3 18.2 0.00 0.04 0.04 67 1012.5
20260904004817 86 360 11.3 18.2 0.00 0.04 0.04 67 1012.5
20260904004722 86 360 12.2 18.2 0.00 0.04 0.04 67 1012.5
20260904004624 86 360 11.3 16.5 0.00 0.04 0.04 67 1012.5
20260904004525 86 360 10.4 16.5 0.00 0.04 0.04 67 1012.5
20260904004425 86 360 8.7 15.6 0.00 0.04 0.04 67 1012.5
20260904004326 86 150 8.7 13.9 0.00 0.04 0.04 67 1012.6
20260904004225 86 360 9.6 13.9 0.00 0.04 0.04 67 1012.5
20260904004130 86 360 9.6 14.8 0.00 0.04 0.04 67 1012.6
20260904004051 86 360 9.6 14.8 0.00 0.04 0.04 66 1012.6
20260904003930 86 360 8.7 14.8 0.00 0.04 0.04 66 1012.6
20260904003830 86 360 9.6 19.1 0.00 0.04 0.04 66 1012.6
20260904003731 86 360 8.7 19.1 0.00 0.04 0.04 66 1012.6
20260904003632 86 360 8.7 19.1 0.00 0.04 0.04 66 1012.6
20260904003534 86 360 9.6 19.1 0.00 0.04 0.04 66 1012.6
20260904003439 86 360 10.4 19.1 0.00 0.04 0.04 66 1012.6
20260904003317 86 360 10.4 19.1 0.00 0.04 0.04 66 1012.6
20260904003218 86 360 11.3 22.6 0.00 0.04 0.04 66 1012.6
20260904003119 86 360 12.2 22.6 0.00 0.04 0.04 66 1012.6
20260904003019 86 360 12.2 22.6 0.00 0.04 0.04 66 1012.5
20260904002919 86 360 11.3 22.6 0.00 0.04 0.04 66 1012.5
20260904002821 86 360 10.4 23.5 0.00 0.04 0.04 65 1012.5
20260904002725 86 360 10.4 23.5 0.00 0.04 0.04 65 1012.5
20260904002625 86 360 11.3 23.5 0.00 0.04 0.04 65 1012.6
20260904002525 87 360 12.2 23.5 0.00 0.04 0.04 65 1012.5
20260904002426 87 360 14.8 23.5 0.00 0.04 0.04 65 1012.4
20260904002327 87 360 15.6 23.5 0.00 0.04 0.04 65 1012.5
20260904002229 87 360 14.8 23.5 0.00 0.04 0.04 65 1012.4
20260904002134 87 360 13.9 23.5 0.00 0.04 0.04 65 1012.5
20260904002034 87 360 12.2 23.5 0.00 0.04 0.04 65 1012.6
20260904001934 87 360 10.4 22.6 0.00 0.04 0.04 65 1012.5
20260904001835 87 360 10.4 22.6 0.00 0.04 0.04 65 1012.5
20260904001716 87 360 11.3 22.6 0.00 0.04 0.04 65 1012.5
20260904001616 87 360 13.0 22.6 0.00 0.04 0.04 65 1012.5
20260904001521 87 360 13.9 22.6 0.00 0.04 0.04 65 1012.5
20260904001421 87 360 13.9 22.6 0.00 0.04 0.04 65 1012.5
20260904001322 87 360 13.9 22.6 0.00 0.04 0.04 65 1012.5
20260904001223 87 360 12.2 19.1 0.00 0.04 0.04 65 1012.5
20260904001142 87 360 12.2 17.4 0.00 0.04 0.04 65 1012.4
20260904001022 87 360 11.3 18.2 0.00 0.04 0.04 66 1012.5
20260904000922 87 360 11.3 18.2 0.00 0.04 0.04 66 1012.4
20260904000842 87 360 12.2 18.2 0.00 0.04 0.04 65 1012.5
20260904000726 87 360 12.2 18.2 0.00 0.04 0.04 65 1012.5
20260904000626 87 360 12.2 18.2 0.00 0.04 0.04 65 1012.5
20260904000527 87 360 11.3 18.2 0.00 0.04 0.04 65 1012.4
20260904000427 88 360 10.4 18.2 0.00 0.04 0.04 65 1012.4
20260904000327 88 360 10.4 18.2 0.00 0.04 0.04 65 1012.4
20260904000248 88 360 11.3 18.2 0.00 0.04 0.04 65 1012.4
20260904000128 88 360 11.3 18.2 0.00 0.04 0.04 65 1012.4
20260904000030 88 360 11.3 18.2 0.00 0.04 0.04 65 1012.4
20260903235952 88 360 10.4 18.2 0.00 0.04 0.04 64 1012.4
20260903235833 88 360 9.6 15.6 0.00 0.04 0.04 64 1012.3
20260903235754 88 360 9.6 15.6 0.00 0.04 0.04 64 1012.4
20260903235633 88 163 8.7 15.6 0.00 0.04 0.04 64 1012.4
20260903235533 88 360 8.7 15.6 0.00 0.04 0.04 64 1012.4
20260903235434 88 360 8.7 15.6 0.00 0.04 0.04 64 1012.5
20260903235318 88 360 8.7 14.8 0.00 0.04 0.04 63 1012.4
20260903235239 88 360 8.7 14.8 0.00 0.04 0.04 64 1012.4
20260903235119 88 360 7.8 14.8 0.00 0.04 0.04 63 1012.4
20260903235019 88 360 7.8 13.9 0.00 0.04 0.04 63 1012.4
20260903234941 88 360 7.8 13.9 0.00 0.04 0.04 63 1012.4
20260903234816 89 360 7.8 16.5 0.00 0.04 0.04 64 1012.3
20260903234737 89 360 7.0 16.5 0.00 0.04 0.04 63 1012.3
20260903234637 89 360 7.8 16.5 0.00 0.04 0.04 63 1012.2
20260903234516 89 360 7.8 16.5 0.00 0.04 0.04 63 1012.3
20260903234422 89 360 8.7 18.2 0.00 0.04 0.04 63 1012.2
20260903234322 89 360 10.4 18.2 0.00 0.04 0.04 63 1012.3
20260903234223 89 360 11.3 18.2 0.00 0.04 0.04 63 1012.3
20260903234124 89 360 11.3 18.2 0.00 0.04 0.04 63 1012.2
20260903234026 89 360 11.3 18.2 0.00 0.04 0.04 63 1012.2
20260903233927 89 360 10.4 18.2 0.00 0.04 0.04 63 1012.1
20260903233831 89 360 10.4 18.2 0.00 0.04 0.04 63 1012.1
20260903233731 89 360 10.4 18.2 0.01 0.04 0.04 63 1012.1
20260903233632 89 360 9.6 18.2 0.01 0.04 0.04 64 1012.2
20260903233533 89 360 8.7 16.5 0.01 0.04 0.04 64 1012.1
20260903233434 89 360 8.7 16.5 0.01 0.04 0.04 64 1012.1
20260903233336 89 360 9.6 16.5 0.01 0.04 0.04 64 1012.2
20260903233219 89 360 9.6 17.4 0.01 0.04 0.04 64 1012.2
20260903233120 89 360 10.4 17.4 0.01 0.04 0.04 65 1012.1
20260903233021 89 360 9.6 17.4 0.01 0.04 0.04 65 1012.3
20260903232922 89 360 9.6 18.2 0.02 0.04 0.04 65 1012.2
20260903232824 89 360 10.4 18.2 0.02 0.04 0.04 65 1012.1
20260903232723 89 360 10.4 18.2 0.02 0.04 0.04 66 1012.1
20260903232623 89 360 12.2 18.2 0.03 0.04 0.04 65 1012.2
20260903232528 89 360 12.2 18.2 0.03 0.04 0.04 65 1012.1
20260903232429 88 360 12.2 18.2 0.04 0.04 0.04 66 1012.2
20260903232329 88 360 11.3 18.2 0.04 0.04 0.04 66 1012.2
20260903232230 88 360 10.4 18.2 0.04 0.04 0.04 66 1012.1
20260903232130 88 360 9.6 18.2 0.04 0.04 0.04 66 1012.1
20260903232031 88 360 7.8 18.2 0.04 0.04 0.04 67 1012.2
20260903231952 88 360 8.7 18.2 0.04 0.04 0.04 67 1012.0
20260903231835 88 360 8.7 20.0 0.04 0.04 0.04 67 1012.1
20260903231736 88 360 9.6 25.2 0.04 0.04 0.04 66 1012.1
20260903231635 88 360 11.3 25.2 0.04 0.04 0.04 67 1012.1
20260903231516 88 360 12.2 25.2 0.04 0.04 0.04 67 1012.1
20260903231417 88 360 12.2 25.2 0.04 0.04 0.04 66 1012.2
20260903231318 88 360 12.2 25.2 0.04 0.04 0.04 67 1012.3
20260903231223 88 360 13.0 25.2 0.04 0.04 0.04 67 1012.3
20260903231124 88 360 14.8 26.1 0.04 0.04 0.04 67 1012.3
20260903231024 88 360 16.5 26.1 0.04 0.04 0.04 68 1012.3
20260903230925 88 360 17.4 26.1 0.04 0.04 0.04 67 1012.2
20260903230826 88 360 17.4 26.1 0.04 0.04 0.04 67 1012.3
20260903230725 88 360 17.4 26.1 0.04 0.04 0.04 67 1012.3
20260903230626 88 360 17.4 26.1 0.04 0.04 0.04 67 1012.3
20260903230531 88 360 18.2 26.1 0.04 0.04 0.04 67 1012.2
20260903230432 88 360 18.2 26.1 0.04 0.04 0.04 67 1012.1
20260903230332 88 360 16.5 26.1 0.04 0.04 0.04 66 1012.1
20260903230231 88 360 14.8 26.1 0.04 0.04 0.04 66 1012.1
20260903230131 89 360 13.0 20.9 0.04 0.04 0.04 66 1012.1
20260903230053 89 360 13.0 20.9 0.04 0.04 0.04 65 1012.0
20260903225952 89 360 13.0 20.9 0.04 0.04 0.04 63 1012.0
20260903225832 89 360 13.0 23.5 0.04 0.04 0.04 63 1012.0
20260903225716 89 360 13.9 23.5 0.04 0.04 0.04 63 1012.0
20260903225617 89 360 14.8 23.5 0.04 0.04 0.04 62 1012.0
20260903225517 89 360 14.8 23.5 0.04 0.04 0.04 62 1011.9
20260903225417 89 360 13.9 23.5 0.04 0.04 0.04 62 1011.9
20260903225318 89 360 14.8 23.5 0.04 0.04 0.04 61 1011.9
20260903225220 90 360 13.9 23.5 0.04 0.04 0.04 61 1011.9
20260903225124 90 360 13.0 23.5 0.04 0.04 0.04 60 1011.8
20260903225042 90 360 11.3 23.5 0.04 0.04 0.04 60 1011.8
20260903224921 90 360 10.4 23.5 0.04 0.04 0.04 60 1011.8
20260903224842 90 360 9.6 20.0 0.04 0.04 0.04 60 1011.7
20260903224716 90 360 7.8 15.6 0.04 0.04 0.04 60 1011.7
20260903224617 90 360 7.8 18.2 0.04 0.04 0.04 61 1011.6
20260903224518 89 360 7.8 18.2 0.04 0.04 0.04 62 1011.7
20260903224424 89 360 8.7 18.2 0.04 0.04 0.04 61 1011.6
20260903224323 89 360 8.7 18.2 0.04 0.04 0.04 61 1011.7
20260903224224 89 360 8.7 18.2 0.04 0.04 0.04 62 1011.7
20260903224124 89 360 9.6 18.2 0.04 0.04 0.04 63 1011.7
20260903224025 89 360 10.4 18.2 0.04 0.04 0.04 63 1011.7
20260903223945 89 360 11.3 18.2 0.04 0.04 0.04 63 1011.7
20260903223824 89 360 12.2 18.2 0.03 0.03 0.03 62 1011.6
20260903223723 89 360 11.3 18.2 0.03 0.03 0.03 62 1011.7
20260903223628 89 360 11.3 15.6 0.03 0.03 0.03 62 1011.6
20260903223549 89 360 10.4 18.2 0.03 0.03 0.03 63 1011.7
20260903223429 89 360 8.7 18.2 0.03 0.03 0.03 63 1011.7
20260903223329 89 360 7.8 18.2 0.03 0.03 0.03 62 1011.7
20260903223229 89 360 7.0 18.2 0.03 0.03 0.03 63 1011.6
20260903223130 90 360 7.8 18.2 0.03 0.03 0.03 62 1011.6
20260903223030 90 360 9.6 18.2 0.03 0.03 0.03 60 1011.7
20260903222935 91 360 11.3 18.2 0.02 0.02 0.02 60 1011.6
20260903222836 91 360 12.2 18.2 0.02 0.02 0.02 57 1011.6
20260903222735 91 360 12.2 18.2 0.01 0.01 0.01 57 1011.7
20260903222656 92 360 9.6 18.2 0.01 0.01 0.01 57 1011.6
20260903222516 93 360 7.8 17.4 0.00 0.00 0.00 57 1011.6
20260903222416 93 360 8.7 17.4 0.00 0.00 0.00 55 1011.6
20260903222322 93 360 9.6 19.1 0.00 0.00 0.00 54 1011.7
20260903222243 93 360 9.6 19.1 0.00 0.00 0.00 53 1011.7
20260903222123 93 125 8.7 19.1 0.00 0.00 0.00 53 1011.6
20260903222024 93 360 8.7 20.0 0.00 0.00 0.00 53 1011.7
20260903221944 93 360 9.6 20.0 0.00 0.00 0.00 53 1011.6
20260903221822 93 360 11.3 20.0 0.00 0.00 0.00 53 1011.6
20260903221723 93 360 12.2 20.0 0.00 0.00 0.00 53 1011.6
20260903221623 93 360 13.0 21.7 0.00 0.00 0.00 53 1011.6
20260903221523 93 360 12.2 21.7 0.00 0.00 0.00 53 1011.7
20260903221427 94 360 11.3 23.5 0.00 0.00 0.00 53 1011.6
20260903221327 94 360 11.3 25.2 0.00 0.00 0.00 53 1011.6
20260903221228 94 360 12.2 25.2 0.00 0.00 0.00 53 1011.7
20260903221129 94 360 13.0 25.2 0.00 0.00 0.00 53 1011.6
20260903221029 94 360 13.9 25.2 0.00 0.00 0.00 53 1011.6
20260903220929 94 360 14.8 25.2 0.00 0.00 0.00 53 1011.5
20260903220834 94 360 14.8 25.2 0.00 0.00 0.00 53 1011.4
20260903220736 94 360 13.0 25.2 0.00 0.00 0.00 52 1011.4
20260903220616 94 360 13.0 23.5 0.00 0.00 0.00 52 1011.4
20260903220516 95 360 12.2 22.6 0.00 0.00 0.00 52 1011.4
20260903220437 95 360 13.0 22.6 0.00 0.00 0.00 51 1011.4
20260903220315 95 360 13.0 22.6 0.00 0.00 0.00 51 1011.3
20260903220216 95 360 11.3 18.2 0.00 0.00 0.00 50 1011.4
20260903220121 96 360 9.6 18.2 0.00 0.00 0.00 50 1011.3
20260903220042 96 360 8.7 18.2 0.00 0.00 0.00 50 1011.4
20260903215922 96 360 9.6 18.2 0.00 0.00 0.00 49 1011.4
20260903215843 96 360 8.7 16.5 0.00 0.00 0.00 49 1011.3
20260903215741 96 360 10.4 16.5 0.00 0.00 0.00 49 1011.3
20260903215640 96 360 9.6 16.5 0.00 0.00 0.00 49 1011.2
20260903215519 97 360 9.6 16.5 0.00 0.00 0.00 48 1011.3
20260903215419 97 360 7.0 12.2 0.00 0.00 0.00 48 1011.2
20260903215324 97 360 6.1 12.2 0.00 0.00 0.00 48 1011.3
20260903215224 97 360 4.3 12.2 0.00 0.00 0.00 49 1011.3
20260903215125 97 360 4.3 12.2 0.00 0.00 0.00 48 1011.3
20260903215026 97 360 5.2 12.2 0.00 0.00 0.00 48 1011.4
20260903214926 97 360 6.1 12.2 0.00 0.00 0.00 49 1011.3
20260903214826 97 360 7.0 12.2 0.00 0.00 0.00 49 1011.3
20260903214727 97 360 7.0 12.2 0.00 0.00 0.00 49 1011.4
20260903214631 97 360 6.1 10.4 0.00 0.00 0.00 48 1011.3
20260903214532 97 360 4.3 9.6 0.00 0.00 0.00 48 1011.4
20260903214431 97 360 3.5 9.6 0.00 0.00 0.00 49 1011.3
20260903214331 97 360 3.5 10.4 0.00 0.00 0.00 49 1011.4
20260903214232 97 360 3.5 13.9 0.00 0.00 0.00 49 1011.4
20260903214133 97 360 3.5 13.9 0.00 0.00 0.00 49 1011.3
20260903214017 97 360 5.2 13.9 0.00 0.00 0.00 49 1011.4
20260903213917 97 360 5.2 13.9 0.00 0.00 0.00 49 1011.4
20260903213837 97 360 6.1 13.9 0.00 0.00 0.00 49 1011.4
20260903213717 97 360 7.0 13.9 0.00 0.00 0.00 49 1011.4
20260903213617 97 360 7.8 13.9 0.00 0.00 0.00 49 1011.4
20260903213517 97 360 8.7 13.9 0.00 0.00 0.00 49 1011.4
20260903213418 97 360 8.7 13.9 0.00 0.00 0.00 49 1011.4
20260903213324 97 360 8.7 13.9 0.00 0.00 0.00 49 1011.4
20260903213224 97 360 9.6 18.2 0.00 0.00 0.00 49 1011.4
20260903213125 97 360 8.7 20.9 0.00 0.00 0.00 49 1011.4
20260903213027 97 360 8.7 20.9 0.00 0.00 0.00 49 1011.5
20260903212928 97 360 7.0 20.9 0.00 0.00 0.00 49 1011.4
20260903212830 97 360 7.8 20.9 0.00 0.00 0.00 49 1011.5
20260903212730 97 360 7.8 20.9 0.00 0.00 0.00 49 1011.5
20260903212655 97 360 10.4 20.9 0.00 0.00 0.00 49 1011.5
20260903212535 97 360 11.3 20.9 0.00 0.00 0.00 49 1011.5
20260903212435 97 360 13.0 20.9 0.00 0.00 0.00 48 1011.5
20260903212355 97 360 12.2 20.9 0.00 0.00 0.00 48 1011.5
20260903212234 98 360 9.6 18.2 0.00 0.00 0.00 48 1011.5
20260903212134 98 360 7.0 15.6 0.00 0.00 0.00 48 1011.5
20260903212036 98 360 7.8 13.0 0.00 0.00 0.00 48 1011.5
20260903211920 98 360 8.7 13.9 0.00 0.00 0.00 48 1011.4
20260903211821 98 360 7.8 16.5 0.00 0.00 0.00 48 1011.5
20260903211721 98 360 6.1 16.5 0.00 0.00 0.00 48 1011.5
20260903211622 98 360 4.3 16.5 0.00 0.00 0.00 48 1011.5
20260903211542 98 360 4.3 16.5 0.00 0.00 0.00 48 1011.4
20260903211422 98 360 6.1 16.5 0.00 0.00 0.00 48 1011.4
20260903211323 98 360 7.8 16.5 0.00 0.00 0.00 48 1011.5
20260903211228 98 360 9.6 16.5 0.00 0.00 0.00 48 1011.6
20260903211128 98 360 10.4 16.5 0.00 0.00 0.00 47 1011.6
20260903211029 99 360 9.6 16.5 0.00 0.00 0.00 47 1011.6
20260903210929 99 360 7.0 13.0 0.00 0.00 0.00 47 1011.6
20260903210849 99 360 5.2 13.0 0.00 0.00 0.00 47 1011.7
20260903210729 98 360 4.3 13.0 0.00 0.00 0.00 47 1011.6
20260903210649 98 360 5.2 13.0 0.00 0.00 0.00 47 1011.6
20260903210533 98 360 6.1 13.0 0.00 0.00 0.00 47 1011.6
20260903210433 98 360 6.1 13.0 0.00 0.00 0.00 47 1011.7
20260903210333 98 360 5.2 13.0 0.00 0.00 0.00 47 1011.7
20260903210234 98 360 6.1 15.6 0.00 0.00 0.00 46 1011.8
20260903210134 98 360 6.1 15.6 0.00 0.00 0.00 47 1011.8
20260903210035 98 360 6.1 15.6 0.00 0.00 0.00 47 1011.7
20260903205918 98 360 7.0 15.6 0.00 0.00 0.00 47 1011.8
20260903205820 98 360 7.8 15.6 0.00 0.00 0.00 47 1011.8
20260903205720 98 360 8.7 15.6 0.00 0.00 0.00 48 1011.9
20260903205621 98 360 9.6 15.6 0.00 0.00 0.00 48 1011.8
20260903205542 98 169 8.7 15.6 0.00 0.00 0.00 47 1011.7
20260903205416 98 360 8.7 14.8 0.00 0.00 0.00 47 1011.8
20260903205317 98 360 7.0 13.0 0.00 0.00 0.00 47 1011.8
20260903205221 98 134 7.0 11.3 0.00 0.00 0.00 47 1011.7
20260903205142 98 360 6.1 11.3 0.00 0.00 0.00 46 1011.7
20260903205022 98 360 5.2 11.3 0.00 0.00 0.00 46 1011.8
20260903204942 98 360 3.5 9.6 0.00 0.00 0.00 47 1011.8
20260903204842 98 360 2.6 9.6 0.00 0.00 0.00 48 1011.8
20260903204721 98 360 3.5 11.3 0.00 0.00 0.00 47 1011.8
20260903204620 97 360 4.3 11.3 0.00 0.00 0.00 47 1011.8
20260903204521 97 360 4.3 11.3 0.00 0.00 0.00 47 1011.9
20260903204426 98 360 3.5 11.3 0.00 0.00 0.00 47 1011.8
20260903204347 97 360 4.3 11.3 0.00 0.00 0.00 48 1011.9
20260903204226 97 360 5.2 11.3 0.00 0.00 0.00 47 1012.0
20260903204147 97 360 7.0 11.3 0.00 0.00 0.00 48 1011.9
20260903204046 98 360 7.0 11.3 0.00 0.00 0.00 47 1012.0
20260903203925 98 360 6.1 13.0 0.00 0.00 0.00 47 1012.0
20260903203826 99 360 6.1 13.0 0.00 0.00 0.00 47 1012.0
20260903203725 99 360 5.2 13.0 0.00 0.00 0.00 47 1012.1
20260903203630 99 360 5.2 13.0 0.00 0.00 0.00 47 1012.0
20260903203550 99 360 4.3 13.0 0.00 0.00 0.00 47 1012.1
20260903203429 99 360 6.1 13.0 0.00 0.00 0.00 46 1012.0
20260903203330 99 360 7.8 13.0 0.00 0.00 0.00 47 1012.1
20260903203231 99 113 7.8 13.0 0.00 0.00 0.00 47 1012.1
20260903203152 99 360 7.0 13.0 0.00 0.00 0.00 46 1012.1
20260903203031 99 360 5.2 13.0 0.00 0.00 0.00 48 1012.1
20260903202952 98 360 3.5 7.8 0.00 0.00 0.00 47 1012.1
20260903202816 98 360 2.6 7.8 0.00 0.00 0.00 48 1012.2
20260903202716 98 360 2.6 7.8 0.00 0.00 0.00 48 1012.1
20260903202637 98 360 3.5 7.8 0.00 0.00 0.00 47 1012.2
20260903202559 98 360 3.5 8.7 0.00 0.00 0.00 48 1012.1
20260903202457 98 360 2.6 13.0 0.00 0.00 0.00 48 1012.3
20260903202335 98 360 1.7 14.8 0.00 0.00 0.00 48 1012.3
20260903202236 97 360 2.6 14.8 0.00 0.00 0.00 49 1012.3
20260903202156 97 360 2.6 14.8 0.00 0.00 0.00 49 1012.3
20260903202057 97 360 3.5 14.8 0.00 0.00 0.00 49 1012.3
20260903201921 97 360 3.5 14.8 0.00 0.00 0.00 48 1012.3
20260903201820 97 360 6.1 14.8 0.00 0.00 0.00 48 1012.3
20260903201721 98 360 8.7 14.8 0.00 0.00 0.00 48 1012.3
20260903201621 98 360 9.6 14.8 0.00 0.00 0.00 46 1012.3
20260903201522 99 360 7.0 13.0 0.00 0.00 0.00 46 1012.4
20260903201422 100 360 4.3 13.0 0.00 0.00 0.00 48 1012.3
20260903201327 100 360 3.5 11.3 0.00 0.00 0.00 47 1012.3
20260903201227 99 360 2.6 11.3 0.00 0.00 0.00 47 1012.3
20260903201127 99 360 3.5 11.3 0.00 0.00 0.00 48 1012.2
20260903201028 99 360 4.3 11.3 0.00 0.00 0.00 47 1012.3
20260903200928 99 360 4.3 11.3 0.00 0.00 0.00 47 1012.3
20260903200827 99 360 5.2 11.3 0.00 0.00 0.00 47 1012.4
20260903200748 99 360 5.2 11.3 0.00 0.00 0.00 47 1012.4
20260903200628 99 360 5.2 11.3 0.00 0.00 0.00 48 1012.4
20260903200531 99 360 5.2 10.4 0.00 0.00 0.00 48 1012.4
20260903200433 99 360 2.6 9.6 0.00 0.00 0.00 49 1012.4
20260903200334 98 360 2.6 10.4 0.00 0.00 0.00 49 1012.4
20260903200254 98 360 2.6 10.4 0.00 0.00 0.00 49 1012.4
20260903200134 98 360 3.5 10.4 0.00 0.00 0.00 48 1012.3
20260903200033 98 360 3.5 10.4 0.00 0.00 0.00 49 1012.4
20260903195953 98 360 3.5 10.4 0.00 0.00 0.00 48 1012.3
20260903195833 98 360 4.3 10.4 0.00 0.00 0.00 48 1012.4
20260903195717 98 360 5.2 10.4 0.00 0.00 0.00 48 1012.5
20260903195616 98 360 5.2 10.4 0.00 0.00 0.00 48 1012.5
20260903195517 98 360 5.2 10.4 0.00 0.00 0.00 48 1012.5
20260903195417 99 360 5.2 10.4 0.00 0.00 0.00 47 1012.5
20260903195318 100 360 4.3 10.4 0.00 0.00 0.00 46 1012.5
20260903195219 100 360 3.5 10.4 0.00 0.00 0.00 46 1012.6
20260903195123 100 360 1.7 9.6 0.00 0.00 0.00 46 1012.5
20260903195023 100 360 1.7 9.6 0.00 0.00 0.00 46 1012.5
20260903194923 100 360 1.7 9.6 0.00 0.00 0.00 46 1012.4
20260903194822 100 360 1.7 9.6 0.00 0.00 0.00 47 1012.5
20260903194723 99 360 1.7 9.6 0.00 0.00 0.00 48 1012.5
20260903194623 99 360 1.7 9.6 0.00 0.00 0.00 48 1012.5
20260903194524 98 360 4.3 9.6 0.00 0.00 0.00 48 1012.6
20260903194428 99 360 4.3 9.6 0.00 0.00 0.00 47 1012.6
20260903194328 99 360 3.5 9.6 0.00 0.00 0.00 49 1012.5
20260903194228 98 360 2.6 11.3 0.00 0.00 0.00 48 1012.6
20260903194129 98 360 1.7 11.3 0.00 0.00 0.00 48 1012.6
20260903194030 98 360 1.7 11.3 0.00 0.00 0.00 48 1012.6
20260903193930 98 360 2.6 11.3 0.00 0.00 0.00 48 1012.6
20260903193831 97 360 3.5 11.3 0.00 0.00 0.00 48 1012.6
20260903193755 97 360 5.2 11.3 0.00 0.00 0.00 48 1012.7
20260903193654 97 360 6.1 11.3 0.00 0.00 0.00 48 1012.7
20260903193554 97 360 7.0 11.3 0.00 0.00 0.00 49 1012.7
20260903193433 98 360 6.1 11.3 0.00 0.00 0.00 47 1012.7
20260903193333 98 360 4.3 11.3 0.00 0.00 0.00 48 1012.7
20260903193233 99 360 2.6 11.3 0.00 0.00 0.00 48 1012.7
20260903193133 98 360 2.6 11.3 0.00 0.00 0.00 47 1012.8
20260903193033 98 360 2.6 11.3 0.00 0.00 0.00 48 1012.7
20260903192918 98 360 4.3 11.3 0.00 0.00 0.00 49 1012.7
20260903192819 98 360 4.3 11.3 0.00 0.00 0.00 49 1012.8
20260903192718 98 360 4.3 11.3 0.00 0.00 0.00 49 1012.8
20260903192620 97 360 5.2 11.3 0.00 0.00 0.00 49 1012.8
20260903192519 97 360 6.1 11.3 0.00 0.00 0.00 49 1012.9
20260903192440 97 360 5.2 11.3 0.00 0.00 0.00 50 1012.8
20260903192319 97 360 4.3 11.3 0.00 0.00 0.00 49 1012.8
20260903192240 97 360 3.5 9.6 0.00 0.00 0.00 49 1012.8
20260903192124 97 360 4.3 10.4 0.00 0.00 0.00 49 1012.8
20260903192024 97 360 3.5 13.0 0.00 0.00 0.00 50 1012.9
20260903191925 97 360 4.3 13.0 0.00 0.00 0.00 51 1012.9
20260903191826 97 114 4.3 13.0 0.00 0.00 0.00 51 1012.9
20260903191726 97 360 6.1 13.0 0.00 0.00 0.00 50 1013.0
20260903191626 97 360 6.1 14.8 0.00 0.00 0.00 49 1012.9
20260903191530 97 360 7.0 14.8 0.00 0.00 0.00 49 1013.0
20260903191431 97 360 7.8 14.8 0.00 0.00 0.00 50 1013.0
20260903191332 97 360 8.7 14.8 0.00 0.00 0.00 51 1013.0
20260903191232 97 360 8.7 14.8 0.00 0.00 0.00 51 1013.0
20260903191132 97 360 8.7 14.8 0.00 0.00 0.00 50 1013.0
20260903191053 97 360 9.6 14.8 0.00 0.00 0.00 51 1013.0
20260903190953 97 360 8.7 14.8 0.00 0.00 0.00 51 1013.1
20260903190852 97 360 7.0 14.8 0.00 0.00 0.00 50 1013.1
20260903190716 98 360 4.3 12.2 0.00 0.00 0.00 50 1013.2
20260903190637 98 360 5.2 13.0 0.00 0.00 0.00 50 1013.2
20260903190536 98 360 5.2 13.0 0.00 0.00 0.00 50 1013.2
20260903190435 98 360 4.3 13.0 0.00 0.00 0.00 50 1013.2
20260903190335 98 360 5.2 13.0 0.00 0.00 0.00 51 1013.2
20260903190237 97 360 6.1 13.0 0.00 0.00 0.00 52 1013.2
20260903190136 97 360 4.3 13.0 0.00 0.00 0.00 52 1013.2
20260903190035 97 360 2.6 13.0 0.00 0.00 0.00 51 1013.3
20260903185920 96 360 1.7 13.0 0.00 0.00 0.00 51 1013.2
20260903185822 96 360 3.5 13.0 0.00 0.00 0.00 52 1013.2
20260903185722 96 360 6.1 13.0 0.00 0.00 0.00 52 1013.3
20260903185622 96 360 7.8 13.0 0.00 0.00 0.00 52 1013.4
20260903185522 96 360 8.7 13.0 0.00 0.00 0.00 51 1013.4
20260903185422 96 360 7.8 13.0 0.00 0.00 0.00 52 1013.4
20260903185327 96 360 7.0 9.6 0.00 0.00 0.00 52 1013.4
20260903185227 96 360 4.3 9.6 0.00 0.00 0.00 51 1013.4
20260903185128 96 360 2.6 8.7 0.00 0.00 0.00 52 1013.4
20260903185027 96 360 2.6 8.7 0.00 0.00 0.00 51 1013.4
20260903184928 95 360 2.6 8.7 0.00 0.00 0.00 51 1013.5
20260903184828 95 360 2.6 8.7 0.00 0.00 0.00 52 1013.5
20260903184729 95 360 4.3 8.7 0.00 0.00 0.00 52 1013.5
20260903184649 95 360 5.2 12.2 0.00 0.00 0.00 51 1013.5
20260903184532 95 360 5.2 12.2 0.00 0.00 0.00 51 1013.6
20260903184432 96 360 4.3 12.2 0.00 0.00 0.00 50 1013.6
20260903184332 96 360 4.3 12.2 0.00 0.00 0.00 50 1013.7
20260903184233 96 360 3.5 12.2 0.00 0.00 0.00 50 1013.7
20260903184134 96 360 3.5 12.2 0.00 0.00 0.00 51 1013.7
20260903184034 96 360 5.2 12.2 0.00 0.00 0.00 51 1013.8
20260903183918 96 360 7.0 12.2 0.00 0.00 0.00 52 1013.7
20260903183818 95 360 7.8 13.9 0.00 0.00 0.00 51 1013.7
20260903183719 95 360 8.7 14.8 0.00 0.00 0.00 51 1013.7
20260903183619 95 360 8.7 14.8 0.00 0.00 0.00 51 1013.7
20260903183518 95 360 9.6 14.8 0.00 0.00 0.00 51 1013.7
20260903183439 95 360 8.7 14.8 0.00 0.00 0.00 50 1013.8
20260903183318 95 360 7.8 14.8 0.00 0.00 0.00 50 1013.7
20260903183219 95 360 7.8 14.8 0.00 0.00 0.00 51 1013.8
20260903183140 95 360 8.7 14.8 0.00 0.00 0.00 51 1013.8
20260903183020 95 360 8.7 14.8 0.00 0.00 0.00 50 1013.7
20260903182920 96 360 7.0 14.8 0.00 0.00 0.00 51 1013.8
20260903182822 96 360 5.2 12.2 0.00 0.00 0.00 51 1013.9
20260903182722 96 360 3.5 12.2 0.00 0.00 0.00 51 1013.8
20260903182642 96 360 2.6 12.2 0.00 0.00 0.00 51 1013.8
20260903182521 96 360 1.7 12.2 0.00 0.00 0.00 52 1013.8
20260903182426 95 360 2.6 12.2 0.00 0.00 0.00 56 1013.8
20260903182327 95 360 2.6 17.4 0.00 0.00 0.00 56 1013.8
20260903182228 94 360 3.5 17.4 0.00 0.00 0.00 55 1013.8
20260903182129 94 360 5.2 17.4 0.00 0.00 0.00 54 1013.9
20260903182050 94 360 6.1 17.4 0.00 0.00 0.00 54 1013.9
20260903181929 94 360 4.3 17.4 0.00 0.00 0.00 54 1013.9
20260903181850 94 360 3.5 17.4 0.00 0.00 0.00 53 1013.9
20260903181730 94 360 6.1 17.4 0.00 0.00 0.00 54 1013.9
20260903181634 94 360 8.7 17.4 0.00 0.00 0.00 54 1014.0
20260903181555 94 360 8.7 17.4 0.00 0.00 0.00 53 1013.9
20260903181434 94 360 7.0 16.5 0.00 0.00 0.00 53 1014.0
20260903181334 94 360 7.8 16.5 0.00 0.00 0.00 53 1013.9
20260903181255 94 360 10.4 16.5 0.00 0.00 0.00 53 1014.0
20260903181135 95 360 9.6 16.5 0.00 0.00 0.00 52 1014.0
20260903181035 95 360 8.7 14.8 0.00 0.00 0.00 52 1014.0
20260903180939 95 360 7.8 13.9 0.00 0.00 0.00 53 1014.0
20260903180820 95 360 6.1 13.9 0.00 0.00 0.00 53 1014.1
20260903180739 94 360 5.2 13.9 0.00 0.00 0.00 53 1014.0
20260903180639 94 360 5.2 13.9 0.00 0.00 0.00 53 1014.1
20260903180519 94 360 5.2 13.9 0.00 0.00 0.00 54 1014.1
20260903180419 94 360 4.3 13.9 0.00 0.00 0.00 55 1014.1
20260903180319 94 360 5.2 13.9 0.00 0.00 0.00 55 1014.1
20260903180219 94 360 7.0 13.9 0.00 0.00 0.00 54 1014.1
20260903180139 94 360 7.8 13.9 0.00 0.00 0.00 53 1014.1
20260903180023 94 360 7.8 13.9 0.00 0.00 0.00 53 1014.1
20260903175924 95 360 6.1 12.2 0.00 0.00 0.00 55 1014.2
20260903175826 95 360 4.3 12.2 0.00 0.00 0.00 54 1014.1
20260903175746 95 360 2.6 10.4 0.00 0.00 0.00 54 1014.1
20260903175626 95 360 2.6 10.4 0.00 0.00 0.00 54 1014.1
20260903175526 94 360 2.6 10.4 0.00 0.00 0.00 53 1014.1
20260903175447 95 360 4.3 10.4 0.00 0.00 0.00 54 1014.3
20260903175330 95 360 3.5 10.4 0.00 0.00 0.00 54 1014.2
20260903175251 95 360 3.5 13.0 0.00 0.00 0.00 53 1014.3
20260903175151 95 230 4.3 13.0 0.00 0.00 0.00 53 1014.2
20260903175029 95 360 4.3 18.2 0.00 0.00 0.00 53 1014.3
20260903174930 95 360 4.3 18.2 0.00 0.00 0.00 53 1014.2
20260903174851 96 360 4.3 18.2 0.00 0.00 0.00 54 1014.2
20260903174751 95 360 4.3 18.2 0.00 0.00 0.00 55 1014.2
20260903174651 95 360 4.3 18.2 0.00 0.00 0.00 55 1014.2
20260903174549 94 360 4.3 18.2 0.00 0.00 0.00 56 1014.2
20260903174429 93 360 7.0 18.2 0.00 0.00 0.00 56 1014.1
20260903174335 93 360 9.6 18.2 0.00 0.00 0.00 55 1014.2
20260903174235 94 360 9.6 18.2 0.00 0.00 0.00 55 1014.2
20260903174135 94 360 7.0 13.9 0.00 0.00 0.00 56 1014.1
20260903174056 94 360 5.2 13.9 0.00 0.00 0.00 56 1014.2
20260903173917 93 360 5.2 13.9 0.00 0.00 0.00 57 1014.2
20260903173816 93 360 5.2 14.8 0.00 0.00 0.00 57 1014.2
20260903173721 93 360 6.1 14.8 0.00 0.00 0.00 57 1014.3
20260903173621 93 360 6.1 14.8 0.00 0.00 0.00 57 1014.2
20260903173522 93 360 7.0 14.8 0.00 0.00 0.00 59 1014.3
20260903173443 93 360 5.2 14.8 0.00 0.00 0.00 59 1014.3
20260903173343 93 360 5.2 14.8 0.00 0.00 0.00 58 1014.3
20260903173223 92 178 5.2 14.8 0.00 0.00 0.00 58 1014.3
20260903173123 93 360 7.8 14.8 0.00 0.00 0.00 58 1014.3
20260903173023 93 360 7.8 14.8 0.00 0.00 0.00 58 1014.4
20260903172927 93 360 7.8 14.8 0.00 0.00 0.00 58 1014.3
20260903172829 93 360 7.8 13.9 0.00 0.00 0.00 58 1014.3
20260903172729 93 360 8.7 13.9 0.00 0.00 0.00 58 1014.3
20260903172650 93 360 7.8 13.9 0.00 0.00 0.00 58 1014.3
20260903172530 93 360 7.8 13.9 0.00 0.00 0.00 57 1014.4
20260903172430 94 360 7.0 13.9 0.00 0.00 0.00 57 1014.5
20260903172331 94 360 7.0 13.0 0.00 0.00 0.00 57 1014.6
20260903172215 95 166 4.3 11.3 0.00 0.00 0.00 55 1014.6
20260903172116 95 360 3.5 11.3 0.00 0.00 0.00 56 1014.6
20260903172016 94 360 1.7 11.3 0.00 0.00 0.00 55 1014.6
20260903171917 94 360 3.5 11.3 0.00 0.00 0.00 56 1014.6
20260903171836 94 360 3.5 11.3 0.00 0.00 0.00 59 1014.7
20260903171735 94 360 5.2 11.3 0.00 0.00 0.00 59 1014.7
20260903171615 93 360 5.2 11.3 0.00 0.00 0.00 59 1014.6
20260903171517 93 360 5.2 11.3 0.00 0.00 0.00 58 1014.7
20260903171436 93 360 4.3 11.3 0.00 0.00 0.00 60 1014.7
20260903171357 93 360 3.5 10.4 0.00 0.00 0.00 60 1014.7
20260903171235 92 360 5.2 10.4 0.00 0.00 0.00 60 1014.7
20260903171135 92 360 6.1 10.4 0.00 0.00 0.00 60 1014.7
20260903171036 92 360 6.1 13.9 0.00 0.00 0.00 59 1014.7
20260903170916 93 360 6.1 13.9 0.00 0.00 0.00 59 1014.8
20260903170840 93 360 4.3 13.9 0.00 0.00 0.00 60 1014.7
20260903170720 92 360 4.3 13.9 0.00 0.00 0.00 59 1014.7
20260903170620 92 360 3.5 13.9 0.00 0.00 0.00 59 1014.7
20260903170520 92 360 3.5 13.9 0.00 0.00 0.00 61 1014.7
20260903170422 92 360 3.5 13.9 0.00 0.00 0.00 61 1014.7
20260903170321 91 360 5.2 13.9 0.00 0.00 0.00 60 1014.8
20260903170222 92 360 7.0 13.9 0.00 0.00 0.00 60 1014.7
20260903170147 92 360 8.7 12.2 0.00 0.00 0.00 61 1014.8
20260903170026 92 360 9.6 12.2 0.00 0.00 0.00 60 1014.8
20260903165947 93 360 7.8 12.2 0.00 0.00 0.00 59 1014.8
20260903165827 93 360 5.2 12.2 0.00 0.00 0.00 58 1014.8
20260903165746 93 360 3.5 13.0 0.00 0.00 0.00 60 1014.8
20260903165646 92 360 4.3 13.0 0.00 0.00 0.00 60 1014.8
20260903165526 91 360 5.2 16.5 0.00 0.00 0.00 60 1014.8
20260903165426 91 360 5.2 16.5 0.00 0.00 0.00 60 1014.8
20260903165347 91 360 3.5 16.5 0.00 0.00 0.00 59 1014.8
20260903165231 91 360 4.3 16.5 0.00 0.00 0.00 59 1014.8
20260903165131 91 360 4.3 16.5 0.00 0.00 0.00 59 1014.9
20260903165032 91 360 5.2 16.5 0.00 0.00 0.00 58 1014.8
20260903164952 91 360 5.2 16.5 0.00 0.00 0.00 58 1014.8
20260903164831 92 360 7.0 16.5 0.00 0.00 0.00 59 1014.9
20260903164732 91 360 8.7 16.5 0.00 0.00 0.00 59 1014.8
20260903164617 92 360 8.7 16.5 0.00 0.00 0.00 60 1014.8
20260903164516 92 360 7.0 16.5 0.00 0.00 0.00 61 1014.8
20260903164418 92 360 4.3 12.2 0.00 0.00 0.00 61 1014.9
20260903164317 91 360 3.5 13.0 0.00 0.00 0.00 62 1014.8
20260903164218 91 360 4.3 13.0 0.00 0.00 0.00 63 1015.0
20260903164119 90 360 6.1 13.0 0.00 0.00 0.00 63 1015.0
20260903164038 90 360 7.0 13.0 0.00 0.00 0.00 62 1015.0
20260903163922 90 360 6.1 13.0 0.00 0.00 0.00 63 1015.0
20260903163823 90 360 4.3 13.0 0.00 0.00 0.00 63 1015.0
20260903163724 90 360 7.0 14.8 0.00 0.00 0.00 63 1015.0
20260903163625 90 360 7.0 14.8 0.00 0.00 0.00 64 1015.0
20260903163526 90 360 7.0 14.8 0.00 0.00 0.00 64 1015.0
20260903163426 90 360 6.1 14.8 0.00 0.00 0.00 63 1015.0
20260903163346 90 360 6.1 14.8 0.00 0.00 0.00 63 1014.9
20260903163230 90 360 6.1 14.8 0.00 0.00 0.00 63 1015.0
20260903163131 90 360 7.0 14.8 0.00 0.00 0.00 63 1015.0
20260903163051 90 360 7.0 14.8 0.00 0.00 0.00 63 1015.0
20260903162951 91 360 7.0 14.8 0.00 0.00 0.00 62 1015.0
20260903162850 91 360 4.3 13.0 0.00 0.00 0.00 63 1015.0
20260903162730 90 360 6.1 13.0 0.00 0.00 0.00 63 1015.1
20260903162629 90 360 7.0 13.9 0.00 0.00 0.00 63 1015.0
20260903162550 90 360 7.0 13.9 0.00 0.00 0.00 63 1015.0
20260903162428 90 360 4.3 13.9 0.00 0.00 0.00 63 1015.0
20260903162333 90 360 4.3 13.9 0.00 0.00 0.00 64 1015.0
20260903162235 90 360 4.3 13.9 0.00 0.00 0.00 64 1015.0
20260903162136 90 360 5.2 13.9 0.00 0.00 0.00 65 1015.0
20260903162016 89 360 7.0 13.9 0.00 0.00 0.00 65 1015.0
20260903161937 89 360 7.8 13.9 0.00 0.00 0.00 65 1015.0
20260903161816 89 360 7.8 13.9 0.00 0.00 0.00 65 1015.0
20260903161717 89 360 7.8 16.5 0.00 0.00 0.00 65 1015.1
20260903161620 89 360 8.7 16.5 0.00 0.00 0.00 65 1015.1
20260903161521 89 360 7.8 16.5 0.00 0.00 0.00 64 1015.0
20260903161421 90 360 7.0 16.5 0.00 0.00 0.00 64 1015.0
20260903161344 90 360 7.0 16.5 0.00 0.00 0.00 64 1015.0
20260903161223 90 360 6.1 16.5 0.00 0.00 0.00 63 1015.0
20260903161124 90 360 6.1 16.5 0.00 0.00 0.00 63 1014.9
20260903161043 90 360 4.3 16.5 0.00 0.00 0.00 63 1015.0
20260903160923 90 360 5.2 16.5 0.00 0.00 0.00 63 1015.0
20260903160827 90 360 3.5 15.6 0.00 0.00 0.00 64 1014.9
20260903160728 90 360 4.3 15.6 0.00 0.00 0.00 65 1015.0
20260903160628 89 360 4.3 15.6 0.00 0.00 0.00 65 1014.9
20260903160529 89 360 5.2 15.6 0.00 0.00 0.00 64 1014.9
20260903160430 89 360 5.2 16.5 0.00 0.00 0.00 64 1014.9
20260903160331 89 360 5.2 16.5 0.00 0.00 0.00 64 1014.9
20260903160232 89 360 6.1 16.5 0.00 0.00 0.00 64 1014.9
20260903160116 89 360 4.3 16.5 0.00 0.00 0.00 64 1014.9
20260903160016 89 360 4.3 16.5 0.00 0.00 0.00 64 1015.0
20260903155917 89 360 5.2 16.5 0.00 0.00 0.00 64 1015.0
20260903155819 89 360 6.1 16.5 0.00 0.00 0.00 64 1015.0
20260903155719 89 360 6.1 16.5 0.00 0.00 0.00 64 1015.0
20260903155619 89 360 5.2 16.5 0.00 0.00 0.00 64 1015.0
20260903155524 89 360 5.2 14.8 0.00 0.00 0.00 64 1015.0
20260903155444 89 360 4.3 14.8 0.00 0.00 0.00 64 1015.0
20260903155344 89 360 4.3 14.8 0.00 0.00 0.00 64 1015.1
20260903155243 89 360 4.3 14.8 0.00 0.00 0.00 64 1015.1
20260903155123 89 360 4.3 15.6 0.00 0.00 0.00 64 1015.0
20260903155024 88 360 5.2 15.6 0.00 0.00 0.00 64 1015.1
20260903154924 88 360 7.0 15.6 0.00 0.00 0.00 64 1015.0
20260903154826 88 360 7.8 15.6 0.00 0.00 0.00 64 1015.0
20260903154731 88 360 8.7 15.6 0.00 0.00 0.00 64 1015.0
20260903154631 89 360 7.8 15.6 0.00 0.00 0.00 64 1015.0
20260903154531 89 360 7.0 15.6 0.00 0.00 0.00 65 1014.9
20260903154432 89 360 7.0 15.6 0.00 0.00 0.00 65 1015.0
20260903154333 89 360 7.0 15.6 0.00 0.00 0.00 65 1015.0
20260903154234 89 360 5.2 17.4 0.00 0.00 0.00 66 1015.0
20260903154119 89 360 4.3 17.4 0.00 0.00 0.00 65 1015.0
20260903154020 89 360 2.6 17.4 0.00 0.00 0.00 66 1015.0
20260903153921 88 360 3.5 17.4 0.00 0.00 0.00 66 1014.9
20260903153821 88 360 3.5 17.4 0.00 0.00 0.00 67 1015.0
20260903153722 88 360 5.2 17.4 0.00 0.00 0.00 67 1015.0
20260903153623 87 360 5.2 17.4 0.00 0.00 0.00 67 1015.0
20260903153527 87 360 7.8 17.4 0.00 0.00 0.00 67 1014.9
20260903153428 88 360 9.6 17.4 0.00 0.00 0.00 68 1014.9
20260903153328 88 360 9.6 16.5 0.00 0.00 0.00 65 1015.0
20260903153229 88 360 7.0 15.6 0.00 0.00 0.00 65 1015.0
20260903153128 89 360 6.1 12.2 0.00 0.00 0.00 66 1015.0
20260903153029 89 360 4.3 12.2 0.00 0.00 0.00 67 1015.0
20260903152930 89 360 4.3 12.2 0.00 0.00 0.00 68 1015.1
20260903152835 89 360 3.5 13.9 0.00 0.00 0.00 68 1015.1
20260903152735 88 360 4.3 15.6 0.00 0.00 0.00 68 1015.1
20260903152635 88 360 4.3 15.6 0.00 0.00 0.00 68 1015.0
20260903152536 88 360 4.3 15.6 0.00 0.00 0.00 68 1015.1
20260903152416 88 360 5.2 15.6 0.00 0.00 0.00 68 1015.0
20260903152316 87 360 5.2 15.6 0.00 0.00 0.00 68 1015.0
20260903152221 87 360 6.1 15.6 0.00 0.00 0.00 69 1015.0
20260903152141 87 360 7.0 15.6 0.00 0.00 0.00 69 1015.1
20260903152021 86 360 7.0 15.6 0.00 0.00 0.00 69 1015.0
20260903151921 86 360 5.2 13.0 0.00 0.00 0.00 69 1015.0
20260903151822 87 360 6.1 13.0 0.00 0.00 0.00 69 1015.0
20260903151743 87 360 5.2 13.0 0.00 0.00 0.00 69 1015.0
20260903151623 87 360 4.3 13.0 0.00 0.00 0.00 69 1015.0
20260903151522 87 360 3.5 13.0 0.00 0.00 0.00 69 1014.9
20260903151427 87 360 3.5 13.0 0.00 0.00 0.00 69 1014.9
20260903151327 87 360 4.3 13.0 0.00 0.00 0.00 70 1014.9
20260903151226 87 360 5.2 13.0 0.00 0.00 0.00 70 1014.9
20260903151127 87 360 6.1 13.0 0.00 0.00 0.00 70 1014.8
20260903151047 87 360 5.2 13.0 0.00 0.00 0.00 70 1014.8
20260903150927 87 360 4.3 13.0 0.00 0.00 0.00 70 1014.9
20260903150828 87 360 3.5 12.2 0.00 0.00 0.00 70 1015.0
20260903150732 87 360 2.6 13.9 0.00 0.00 0.00 71 1014.9
20260903150632 86 360 3.5 13.9 0.00 0.00 0.00 71 1014.9
20260903150534 86 360 4.3 13.9 0.00 0.00 0.00 71 1015.0
20260903150433 86 360 5.2 13.9 0.00 0.00 0.00 71 1015.0
20260903150316 86 360 5.2 13.9 0.00 0.00 0.00 72 1015.0
20260903150216 86 360 5.2 13.9 0.00 0.00 0.00 72 1015.0
20260903150120 86 360 7.0 13.9 0.00 0.00 0.00 72 1015.0
20260903150021 86 360 6.1 13.9 0.00 0.00 0.00 71 1015.0
20260903145941 86 360 7.0 13.9 0.00 0.00 0.00 71 1014.9
20260903145822 86 360 5.2 13.0 0.00 0.00 0.00 71 1014.9
20260903145719 86 360 6.1 13.0 0.00 0.00 0.00 72 1015.0
20260903145620 86 360 6.1 13.0 0.00 0.00 0.00 71 1014.9
20260903145520 86 360 6.1 13.0 0.00 0.00 0.00 71 1015.0
20260903145421 86 360 5.2 13.0 0.00 0.00 0.00 71 1014.8
20260903145325 86 360 4.3 13.0 0.00 0.00 0.00 71 1014.8
20260903145225 86 360 4.3 13.0 0.00 0.00 0.00 71 1014.9
20260903145126 86 360 4.3 12.2 0.00 0.00 0.00 72 1014.9
20260903145027 86 360 5.2 12.2 0.00 0.00 0.00 72 1015.0
20260903144946 86 360 5.2 13.0 0.00 0.00 0.00 72 1014.8
20260903144826 86 360 6.1 13.0 0.00 0.00 0.00 72 1014.9
20260903144727 86 360 5.2 13.0 0.00 0.00 0.00 72 1014.9
20260903144632 86 360 5.2 17.4 0.00 0.00 0.00 72 1014.9
20260903144531 86 360 5.2 17.4 0.00 0.00 0.00 72 1014.7
20260903144432 86 360 5.2 17.4 0.00 0.00 0.00 73 1014.8
20260903144333 86 360 5.2 17.4 0.00 0.00 0.00 74 1014.8
20260903144234 85 360 6.1 17.4 0.00 0.00 0.00 74 1014.8
20260903144154 85 360 7.8 17.4 0.00 0.00 0.00 74 1014.8
20260903144033 85 360 7.8 17.4 0.00 0.00 0.00 74 1014.8
20260903143918 85 360 7.0 17.4 0.00 0.00 0.00 74 1014.8
20260903143819 85 360 6.1 19.1 0.00 0.00 0.00 74 1014.8
20260903143719 85 360 6.1 19.1 0.00 0.00 0.00 74 1014.8
20260903143620 85 360 7.0 19.1 0.00 0.00 0.00 74 1014.8
20260903143521 85 360 6.1 19.1 0.00 0.00 0.00 74 1014.8
20260903143421 85 360 7.0 19.1 0.00 0.00 0.00 74 1014.9
20260903143327 85 360 7.0 19.1 0.00 0.00 0.00 75 1014.8
20260903143226 84 360 7.8 19.1 0.00 0.00 0.00 76 1014.8
20260903143127 84 360 8.7 19.1 0.00 0.00 0.00 75 1014.8
20260903143027 85 360 6.1 19.1 0.00 0.00 0.00 75 1014.8
20260903142928 85 360 4.3 13.9 0.00 0.00 0.00 77 1014.8
20260903142831 85 360 4.3 14.8 0.00 0.00 0.00 77 1014.8
20260903142750 85 360 5.2 14.8 0.00 0.00 0.00 76 1014.8
20260903142633 84 360 5.2 14.8 0.00 0.00 0.00 77 1014.8
20260903142533 84 360 6.1 14.8 0.00 0.00 0.00 76 1014.9
20260903142433 84 360 6.1 15.6 0.00 0.00 0.00 77 1014.9
20260903142354 84 360 6.1 15.6 0.00 0.00 0.00 77 1014.9
20260903142253 84 360 5.2 16.5 0.00 0.00 0.00 77 1014.8
20260903142132 84 360 7.0 16.5 0.00 0.00 0.00 77 1015.0
20260903142032 84 360 6.1 16.5 0.00 0.00 0.00 77 1015.0
20260903141933 84 360 6.1 16.5 0.00 0.00 0.00 77 1015.0
20260903141817 84 360 5.2 16.5 0.00 0.00 0.00 77 1014.9
20260903141717 84 360 3.5 16.5 0.00 0.00 0.00 77 1015.0
20260903141618 83 360 4.3 16.5 0.00 0.00 0.00 77 1015.0
20260903141520 83 360 6.1 16.5 0.00 0.00 0.00 77 1015.0
20260903141420 83 360 7.8 16.5 0.00 0.00 0.00 77 1015.0
20260903141340 83 360 7.8 15.6 0.00 0.00 0.00 77 1015.0
20260903141220 84 360 7.8 15.6 0.00 0.00 0.00 77 1015.0
20260903141125 84 360 6.1 15.6 0.00 0.00 0.00 77 1015.0
20260903141046 84 360 5.2 12.2 0.00 0.00 0.00 77 1015.0
20260903140925 84 360 4.3 9.6 0.00 0.00 0.00 77 1015.0
20260903140825 84 360 4.3 9.6 0.00 0.00 0.00 77 1015.0
20260903140726 84 360 3.5 9.6 0.00 0.00 0.00 78 1014.9
20260903140627 84 360 2.6 10.4 0.00 0.00 0.00 78 1015.0
20260903140547 84 360 1.7 10.4 0.00 0.00 0.00 78 1015.1
20260903140447 84 360 2.6 10.4 0.00 0.00 0.00 78 1014.9
20260903140330 83 360 2.6 11.3 0.00 0.00 0.00 79 1015.0
20260903140230 83 360 3.5 12.2 0.00 0.00 0.00 79 1015.0
20260903140151 83 360 3.5 12.2 0.00 0.00 0.00 79 1015.0
20260903140050 83 360 3.5 12.2 0.00 0.00 0.00 79 1015.1
20260903135930 83 360 2.6 12.2 0.00 0.00 0.00 79 1015.1
20260903135832 83 360 2.6 12.2 0.00 0.00 0.00 79 1015.1
20260903135729 83 360 2.6 12.2 0.00 0.00 0.00 80 1015.0
20260903135630 83 360 4.3 12.2 0.00 0.00 0.00 80 1015.0
20260903135535 83 360 4.3 12.2 0.00 0.00 0.00 80 1014.9
20260903135457 83 360 4.3 12.2 0.00 0.00 0.00 80 1015.0
20260903135335 83 360 3.5 13.0 0.00 0.00 0.00 80 1014.9
20260903135216 83 360 4.3 13.0 0.00 0.00 0.00 80 1014.9
20260903135116 83 360 3.5 13.0 0.00 0.00 0.00 80 1015.0
20260903135017 83 360 3.5 13.0 0.00 0.00 0.00 80 1015.0
20260903134938 82 360 3.5 14.8 0.00 0.00 0.00 80 1014.9
20260903134822 82 360 4.3 14.8 0.00 0.00 0.00 80 1014.9
20260903134723 82 360 4.3 14.8 0.00 0.00 0.00 80 1014.9
20260903134623 82 360 6.1 14.8 0.00 0.00 0.00 80 1014.9
20260903134524 82 360 6.1 14.8 0.00 0.00 0.00 80 1015.0
20260903134423 82 360 6.1 14.8 0.00 0.00 0.00 81 1015.0
20260903134325 82 360 4.3 14.8 0.00 0.00 0.00 81 1015.0
20260903134226 82 360 5.2 14.8 0.00 0.00 0.00 80 1015.0
20260903134131 82 360 4.3 14.8 0.00 0.00 0.00 80 1015.0
20260903134051 82 360 5.2 14.8 0.00 0.00 0.00 80 1015.0
20260903133931 82 360 4.3 14.8 0.00 0.00 0.00 80 1015.1
20260903133831 82 360 4.3 14.8 0.00 0.00 0.00 80 1015.1
20260903133731 82 360 4.3 11.3 0.00 0.00 0.00 80 1015.0
20260903133632 82 360 4.3 11.3 0.00 0.00 0.00 81 1015.0
20260903133516 82 360 5.2 11.3 0.00 0.00 0.00 81 1015.0
20260903133417 82 360 6.1 11.3 0.00 0.00 0.00 81 1015.1
20260903133319 82 360 6.1 11.3 0.00 0.00 0.00 81 1015.0
20260903133219 82 360 5.2 11.3 0.00 0.00 0.00 81 1015.0
20260903133120 82 360 4.3 10.4 0.00 0.00 0.00 81 1015.0
20260903133020 82 360 4.3 9.6 0.00 0.00 0.00 81 1015.0
20260903132922 82 360 4.3 9.6 0.00 0.00 0.00 81 1015.0
20260903132826 82 360 3.5 9.6 0.00 0.00 0.00 81 1015.1
20260903132746 82 360 3.5 9.6 0.00 0.00 0.00 81 1015.1
20260903132625 82 360 2.6 8.7 0.00 0.00 0.00 82 1015.0
20260903132526 82 360 2.6 12.2 0.00 0.00 0.00 82 1015.1
20260903132446 82 360 2.6 12.2 0.00 0.00 0.00 82 1015.0
20260903132325 82 360 2.6 12.2 0.00 0.00 0.00 82 1015.1
20260903132226 82 360 3.5 12.2 0.00 0.00 0.00 82 1015.1
20260903132131 82 360 3.5 12.2 0.00 0.00 0.00 82 1015.0
20260903132031 82 360 3.5 12.2 0.00 0.00 0.00 82 1015.1
20260903131932 81 360 5.2 12.2 0.00 0.00 0.00 83 1015.1
20260903131853 81 360 5.2 12.2 0.00 0.00 0.00 83 1015.1
20260903131752 81 360 6.1 12.2 0.00 0.00 0.00 82 1015.1
20260903131632 81 360 5.2 10.4 0.00 0.00 0.00 83 1015.0
20260903131533 81 360 5.2 10.4 0.00 0.00 0.00 83 1015.0
20260903131417 81 360 6.1 12.2 0.00 0.00 0.00 83 1015.0
20260903131319 81 360 4.3 12.2 0.00 0.00 0.00 83 1015.1
20260903131219 81 360 3.5 12.2 0.00 0.00 0.00 83 1015.1
20260903131139 81 360 2.6 12.2 0.00 0.00 0.00 83 1015.1
20260903131019 81 360 2.6 12.2 0.00 0.00 0.00 83 1015.1
20260903130918 81 360 2.6 12.2 0.00 0.00 0.00 83 1015.1
20260903130820 81 360 2.6 12.2 0.00 0.00 0.00 83 1015.1
20260903130721 81 360 4.3 12.2 0.00 0.00 0.00 83 1015.1
20260903130644 81 360 4.3 12.2 0.00 0.00 0.00 83 1015.1
20260903130524 81 360 6.1 12.2 0.00 0.00 0.00 84 1015.1
20260903130445 81 360 4.3 8.7 0.00 0.00 0.00 84 1015.1
20260903130325 81 360 4.3 8.7 0.00 0.00 0.00 84 1015.0
20260903130246 81 360 5.2 8.7 0.00 0.00 0.00 84 1014.8
20260903130126 81 360 5.2 8.7 0.00 0.00 0.00 84 1014.9
20260903130046 81 360 5.2 9.6 0.00 0.00 0.00 84 1014.8
20260903125925 81 360 3.5 7.8 0.00 0.00 0.00 84 1014.9
20260903125831 81 360 3.5 7.8 0.00 0.00 0.00 84 1014.9
20260903125730 81 360 3.5 7.8 0.00 0.00 0.00 84 1014.9
20260903125632 81 360 3.5 9.6 0.00 0.00 0.00 84 1014.9
20260903125552 81 360 3.5 9.6 0.00 0.00 0.00 84 1014.9
20260903125432 80 360 2.6 9.6 0.00 0.00 0.00 84 1015.0
20260903125332 80 360 2.6 9.6 0.00 0.00 0.00 84 1015.0
20260903125233 80 360 2.6 9.6 0.00 0.00 0.00 84 1014.9
20260903125117 80 360 3.5 9.6 0.00 0.00 0.00 84 1014.9
20260903125018 80 360 4.3 9.6 0.00 0.00 0.00 85 1014.8
20260903124919 80 360 3.5 10.4 0.00 0.00 0.00 85 1014.8
20260903124819 80 360 3.5 10.4 0.00 0.00 0.00 85 1014.8
20260903124720 80 360 3.5 10.4 0.00 0.00 0.00 85 1014.7
20260903124640 80 360 4.3 10.4 0.00 0.00 0.00 85 1014.8
20260903124521 80 360 3.5 10.4 0.00 0.00 0.00 85 1014.8
20260903124425 80 360 3.5 10.4 0.00 0.00 0.00 85 1014.8
20260903124326 80 360 3.5 10.4 0.00 0.00 0.00 85 1014.8
20260903124247 80 360 5.2 10.4 0.00 0.00 0.00 85 1014.8
20260903124126 80 360 5.2 11.3 0.00 0.00 0.00 85 1014.8
20260903124046 80 360 4.3 11.3 0.00 0.00 0.00 85 1014.8
20260903123946 80 360 4.3 11.3 0.00 0.00 0.00 85 1014.8
20260903123845 80 360 5.2 11.3 0.00 0.00 0.00 85 1014.7
20260903123724 80 360 3.5 11.3 0.00 0.00 0.00 85 1014.8
20260903123629 80 360 2.6 11.3 0.00 0.00 0.00 85 1014.7
20260903123529 80 360 3.5 11.3 0.00 0.00 0.00 85 1014.7
20260903123428 80 360 4.3 11.3 0.00 0.00 0.00 85 1014.7
20260903123330 80 360 5.2 11.3 0.00 0.00 0.00 85 1014.7
20260903123231 80 360 3.5 10.4 0.00 0.00 0.00 85 1014.7
20260903123132 80 360 3.5 10.4 0.00 0.00 0.00 85 1014.7
20260903123032 80 360 4.3 10.4 0.00 0.00 0.00 85 1014.7
20260903122916 80 360 5.2 10.4 0.00 0.00 0.00 85 1014.7
20260903122839 80 360 5.2 10.4 0.00 0.00 0.00 85 1014.7
20260903122718 80 360 4.3 11.3 0.00 0.00 0.00 85 1014.7
20260903122618 80 169 2.6 11.3 0.00 0.00 0.00 85 1014.6
20260903122517 80 360 2.6 11.3 0.00 0.00 0.00 85 1014.7
20260903122419 80 360 3.5 13.9 0.00 0.00 0.00 85 1014.6
20260903122319 80 360 3.5 13.9 0.00 0.00 0.00 85 1014.6
20260903122223 80 360 2.6 13.9 0.00 0.00 0.00 85 1014.6
20260903122123 80 360 3.5 13.9 0.00 0.00 0.00 85 1014.6
20260903122025 80 360 4.3 13.9 0.00 0.00 0.00 85 1014.6
20260903121925 80 360 5.2 13.9 0.00 0.00 0.00 85 1014.5
20260903121826 80 360 4.3 13.9 0.00 0.00 0.00 85 1014.5
20260903121727 80 360 4.3 13.9 0.00 0.00 0.00 85 1014.6
20260903121628 80 360 4.3 13.9 0.00 0.00 0.00 85 1014.6
20260903121533 80 360 5.2 13.0 0.00 0.00 0.00 85 1014.5
20260903121433 80 360 5.2 13.0 0.00 0.00 0.00 85 1014.5
20260903121333 80 360 6.1 13.0 0.00 0.00 0.00 85 1014.5
20260903121235 80 360 5.2 13.0 0.00 0.00 0.00 85 1014.5
20260903121116 80 360 4.3 13.0 0.00 0.00 0.00 85 1014.5
20260903121016 80 360 4.3 13.0 0.00 0.00 0.00 85 1014.6
20260903120921 80 360 5.2 13.0 0.00 0.00 0.00 85 1014.5
20260903120822 80 360 5.2 13.0 0.00 0.00 0.00 85 1014.5
20260903120722 80 360 4.3 13.0 0.00 0.00 0.00 85 1014.5
20260903120622 80 360 3.5 13.0 0.00 0.00 0.00 85 1014.5
20260903120523 80 360 5.2 13.0 0.00 0.00 0.00 85 1014.4
20260903120444 80 184 6.1 13.0 0.00 0.00 0.00 85 1014.5
20260903120324 80 360 5.2 13.0 0.00 0.00 0.00 85 1014.4
20260903120228 80 360 4.3 11.3 0.00 0.00 0.00 85 1014.4
20260903120129 80 360 2.6 9.6 0.00 0.00 0.00 85 1014.4
20260903120050 80 360 4.3 9.6 0.00 0.00 0.00 85 1014.3
20260903115929 80 360 4.3 9.6 0.00 0.00 0.00 85 1014.4
20260903115832 80 360 4.3 9.6 0.00 0.00 0.00 85 1014.3
20260903115731 80 360 4.3 11.3 0.00 0.00 0.00 85 1014.4
20260903115630 80 360 3.5 11.3 0.00 0.00 0.00 85 1014.4
20260903115534 80 360 3.5 11.3 0.00 0.00 0.00 85 1014.3
20260903115436 80 360 2.6 11.3 0.00 0.00 0.00 85 1014.4
20260903115316 80 360 2.6 11.3 0.00 0.00 0.00 85 1014.4
20260903115216 80 360 4.3 11.3 0.00 0.00 0.00 85 1014.4
20260903115117 80 360 5.2 11.3 0.00 0.00 0.00 85 1014.3
20260903115019 80 360 6.1 13.0 0.00 0.00 0.00 85 1014.3
20260903114940 80 360 6.1 13.0 0.00 0.00 0.00 85 1014.3
20260903114823 80 360 5.2 13.0 0.00 0.00 0.00 85 1014.3
20260903114723 80 360 5.2 13.0 0.00 0.00 0.00 85 1014.3
20260903114624 80 360 3.5 13.0 0.00 0.00 0.00 85 1014.2
20260903114523 80 360 3.5 13.0 0.00 0.00 0.00 85 1014.3
20260903114425 80 360 3.5 13.0 0.00 0.00 0.00 85 1014.2
20260903114325 80 360 4.3 13.0 0.00 0.00 0.00 85 1014.2
20260903114245 80 360 6.1 13.0 0.00 0.00 0.00 85 1014.2
20260903114129 80 360 6.1 13.0 0.00 0.00 0.00 85 1014.3
20260903114030 80 360 6.1 12.2 0.00 0.00 0.00 85 1014.2
20260903113932 80 360 5.2 12.2 0.00 0.00 0.00 85 1014.2
20260903113832 80 360 4.3 11.3 0.00 0.00 0.00 85 1014.2
20260903113733 80 360 3.5 11.3 0.00 0.00 0.00 85 1014.2
20260903113634 80 360 2.6 11.3 0.00 0.00 0.00 85 1014.2
20260903113519 80 360 3.5 11.3 0.00 0.00 0.00 85 1014.2
20260903113419 80 360 3.5 11.3 0.00 0.00 0.00 85 1014.2
20260903113320 80 360 3.5 11.3 0.00 0.00 0.00 85 1014.2
20260903113220 80 360 3.5 11.3 0.00 0.00 0.00 85 1014.3
20260903113122 80 360 3.5 11.3 0.00 0.00 0.00 86 1014.3
20260903113042 80 360 3.5 11.3 0.00 0.00 0.00 86 1014.2
20260903112922 80 360 3.5 11.3 0.00 0.00 0.00 86 1014.3
20260903112828 80 360 4.3 11.3 0.00 0.00 0.00 86 1014.3
20260903112728 80 360 5.2 12.2 0.00 0.00 0.00 86 1014.3
20260903112628 80 360 5.2 12.2 0.00 0.00 0.00 86 1014.3
20260903112549 80 360 5.2 12.2 0.00 0.00 0.00 86 1014.2
20260903112427 80 360 5.2 12.2 0.00 0.00 0.00 86 1014.2
20260903112348 80 360 6.1 12.2 0.00 0.00 0.00 86 1014.2
20260903112228 80 360 7.0 12.2 0.00 0.00 0.00 86 1014.2
20260903112128 80 360 6.1 12.2 0.00 0.00 0.00 86 1014.3
20260903112033 80 360 6.1 12.2 0.00 0.00 0.00 86 1014.2
20260903111934 80 360 6.1 12.2 0.00 0.00 0.00 86 1014.2
20260903111835 80 360 5.2 11.3 0.00 0.00 0.00 86 1014.1
20260903111716 80 360 6.1 11.3 0.00 0.00 0.00 86 1014.2
20260903111617 80 360 5.2 11.3 0.00 0.00 0.00 86 1014.1
20260903111517 80 360 4.3 11.3 0.00 0.00 0.00 86 1014.2
20260903111422 80 360 3.5 11.3 0.00 0.00 0.00 86 1014.2
20260903111321 80 360 3.5 11.3 0.00 0.00 0.00 86 1014.2
20260903111222 80 360 3.5 11.3 0.00 0.00 0.00 86 1014.2
20260903111121 80 360 5.2 11.3 0.00 0.00 0.00 86 1014.2
20260903111021 80 360 6.1 11.3 0.00 0.00 0.00 86 1014.2
20260903110922 80 360 5.2 11.3 0.00 0.00 0.00 86 1014.2
20260903110843 80 360 5.2 11.3 0.00 0.00 0.00 86 1014.1
20260903110722 79 360 4.3 10.4 0.00 0.00 0.00 87 1014.2
20260903110643 79 360 4.3 11.3 0.00 0.00 0.00 87 1014.1
20260903110527 80 360 4.3 11.3 0.00 0.00 0.00 87 1014.1
20260903110426 79 360 4.3 11.3 0.00 0.00 0.00 87 1014.2
20260903110326 79 360 4.3 11.3 0.00 0.00 0.00 87 1014.1
20260903110227 79 360 3.5 11.3 0.00 0.00 0.00 87 1014.1
20260903110128 79 360 4.3 11.3 0.00 0.00 0.00 87 1014.1
20260903110027 79 360 4.3 11.3 0.00 0.00 0.00 87 1014.1
20260903105928 79 192 5.2 11.3 0.00 0.00 0.00 87 1014.1
20260903105834 79 360 6.1 11.3 0.00 0.00 0.00 87 1014.1
20260903105755 79 360 6.1 11.3 0.00 0.00 0.00 87 1014.1
20260903105633 79 360 5.2 11.3 0.00 0.00 0.00 87 1014.0
20260903105534 79 360 4.3 7.8 0.00 0.00 0.00 87 1014.1
20260903105435 79 360 3.5 7.8 0.00 0.00 0.00 87 1014.1
20260903105316 79 360 2.6 7.8 0.00 0.00 0.00 87 1014.1
20260903105217 79 360 3.5 7.8 0.00 0.00 0.00 87 1014.2
20260903105141 79 360 2.6 7.8 0.00 0.00 0.00 87 1014.2
20260903105020 79 360 4.3 7.8 0.00 0.00 0.00 87 1014.1
20260903104921 79 360 4.3 7.8 0.00 0.00 0.00 87 1014.2
20260903104822 79 360 3.5 7.8 0.00 0.00 0.00 87 1014.2
20260903104723 79 360 3.5 7.8 0.00 0.00 0.00 87 1014.1
20260903104624 79 360 3.5 7.8 0.00 0.00 0.00 87 1014.1
20260903104523 79 360 3.5 7.8 0.00 0.00 0.00 87 1014.2
20260903104427 79 360 3.5 7.8 0.00 0.00 0.00 87 1014.1
20260903104328 79 360 2.6 7.8 0.00 0.00 0.00 87 1014.2
20260903104249 79 360 3.5 7.8 0.00 0.00 0.00 87 1014.2
20260903104148 79 360 3.5 7.8 0.00 0.00 0.00 87 1014.1
20260903104047 79 360 4.3 7.8 0.00 0.00 0.00 87 1014.1
20260903103926 79 360 3.5 8.7 0.00 0.00 0.00 87 1014.1
20260903103847 79 360 3.5 9.6 0.00 0.00 0.00 87 1014.1
20260903103747 79 360 3.5 10.4 0.00 0.00 0.00 87 1014.0
20260903103627 79 360 3.5 10.4 0.00 0.00 0.00 87 1014.0
20260903103547 79 360 3.5 10.4 0.00 0.00 0.00 87 1014.0
20260903103430 79 360 3.5 10.4 0.00 0.00 0.00 87 1014.1
20260903103331 79 360 3.5 10.4 0.00 0.00 0.00 87 1014.0
20260903103232 79 360 4.3 10.4 0.00 0.00 0.00 87 1014.1
20260903103133 79 360 4.3 10.4 0.00 0.00 0.00 87 1014.1
20260903103034 79 360 4.3 10.4 0.00 0.00 0.00 87 1014.0
20260903102934 79 360 4.3 10.4 0.00 0.00 0.00 87 1014.0
20260903102819 79 360 3.5 10.4 0.00 0.00 0.00 87 1014.0
20260903102719 79 360 3.5 10.4 0.00 0.00 0.00 87 1014.0
20260903102639 79 360 4.3 10.4 0.00 0.00 0.00 87 1014.0
20260903102539 79 360 4.3 10.4 0.00 0.00 0.00 87 1014.0
20260903102438 79 360 3.5 11.3 0.00 0.00 0.00 87 1014.1
20260903102318 79 360 2.6 15.6 0.00 0.00 0.00 87 1014.0
20260903102217 79 360 3.5 15.6 0.00 0.00 0.00 87 1014.1
20260903102119 79 360 4.3 15.6 0.00 0.00 0.00 87 1014.0
20260903102024 79 360 4.3 15.6 0.00 0.00 0.00 87 1014.0
20260903101924 79 360 6.1 15.6 0.00 0.00 0.00 87 1014.0
20260903101824 79 360 5.2 15.6 0.00 0.00 0.00 87 1013.9
20260903101725 79 360 6.1 15.6 0.00 0.00 0.00 87 1014.0
20260903101646 79 360 7.0 15.6 0.00 0.00 0.00 87 1013.9
20260903101525 79 360 6.1 15.6 0.00 0.00 0.00 87 1014.0
20260903101426 79 360 6.1 15.6 0.00 0.00 0.00 87 1013.9
20260903101330 79 360 4.3 14.8 0.00 0.00 0.00 87 1013.9
20260903101231 79 360 3.5 12.2 0.00 0.00 0.00 87 1013.8
20260903101131 79 195 3.5 12.2 0.00 0.00 0.00 87 1014.0
20260903101034 79 360 4.3 12.2 0.00 0.00 0.00 87 1014.0
20260903100934 79 360 4.3 12.2 0.00 0.00 0.00 87 1014.0
20260903100816 79 360 4.3 12.2 0.00 0.00 0.00 87 1013.9
20260903100721 79 360 4.3 12.2 0.00 0.00 0.00 87 1013.9
20260903100622 79 360 4.3 11.3 0.00 0.00 0.00 87 1013.9
20260903100541 79 360 5.2 11.3 0.00 0.00 0.00 87 1013.9
20260903100421 79 360 5.2 11.3 0.00 0.00 0.00 87 1013.9
20260903100322 79 360 5.2 11.3 0.00 0.00 0.00 87 1013.9
20260903100222 79 360 5.2 11.3 0.00 0.00 0.00 87 1014.0
20260903100124 79 360 5.2 11.3 0.00 0.00 0.00 87 1013.9
20260903100028 79 360 4.3 11.3 0.00 0.00 0.00 87 1013.9
20260903095930 79 360 4.3 11.3 0.00 0.00 0.00 87 1014.0
20260903095832 79 360 4.3 11.3 0.00 0.00 0.00 87 1014.0
20260903095731 79 360 4.3 11.3 0.00 0.00 0.00 87 1013.9
20260903095632 79 360 5.2 11.3 0.00 0.00 0.00 87 1014.0
20260903095551 79 360 5.2 11.3 0.00 0.00 0.00 87 1013.9
20260903095432 79 360 6.1 11.3 0.00 0.00 0.00 87 1014.0
20260903095317 79 360 5.2 11.3 0.00 0.00 0.00 87 1014.0
20260903095238 79 360 4.3 11.3 0.00 0.00 0.00 87 1014.0
20260903095117 79 360 4.3 11.3 0.00 0.00 0.00 87 1014.0
20260903095017 79 360 4.3 9.6 0.00 0.00 0.00 87 1014.0
20260903094918 79 360 5.2 9.6 0.00 0.00 0.00 87 1014.1
20260903094819 79 360 5.2 9.6 0.00 0.00 0.00 87 1014.0
20260903094720 79 360 4.3 9.6 0.00 0.00 0.00 87 1014.1
20260903094624 79 360 4.3 9.6 0.00 0.00 0.00 87 1014.2
20260903094526 79 360 3.5 8.7 0.00 0.00 0.00 87 1014.1
20260903094427 79 360 4.3 8.7 0.00 0.00 0.00 87 1014.2
20260903094347 79 360 4.3 8.7 0.00 0.00 0.00 86 1014.1
20260903094228 79 360 5.2 8.7 0.00 0.00 0.00 86 1014.1
20260903094128 79 360 4.3 8.7 0.00 0.00 0.00 86 1014.1
20260903094028 79 360 3.5 8.7 0.00 0.00 0.00 86 1014.1
20260903093950 79 360 3.5 8.7 0.00 0.00 0.00 86 1014.1
20260903093831 79 360 3.5 8.7 0.00 0.00 0.00 86 1014.2
20260903093732 79 360 3.5 8.7 0.00 0.00 0.00 86 1014.1
20260903093653 79 360 3.5 8.7 0.00 0.00 0.00 86 1014.2
20260903093533 79 360 4.3 11.3 0.00 0.00 0.00 86 1014.1
20260903093453 79 360 4.3 11.3 0.00 0.00 0.00 86 1014.1
20260903093332 79 175 5.2 11.3 0.00 0.00 0.00 86 1014.2
20260903093254 79 360 5.2 11.3 0.00 0.00 0.00 86 1014.1
20260903093133 79 360 5.2 11.3 0.00 0.00 0.00 86 1014.2
20260903093018 79 360 5.2 11.3 0.00 0.00 0.00 86 1014.2
20260903092940 79 360 6.1 11.3 0.00 0.00 0.00 86 1014.2
20260903092819 79 360 5.2 11.3 0.00 0.00 0.00 86 1014.2
20260903092719 79 360 5.2 11.3 0.00 0.00 0.00 86 1014.2
20260903092619 79 360 3.5 10.4 0.00 0.00 0.00 86 1014.2
20260903092520 79 360 2.6 9.6 0.00 0.00 0.00 86 1014.2
20260903092420 79 360 3.5 9.6 0.00 0.00 0.00 86 1014.2
20260903092325 79 360 4.3 9.6 0.00 0.00 0.00 86 1014.3
20260903092226 79 360 4.3 11.3 0.00 0.00 0.00 86 1014.3
20260903092127 79 360 4.3 11.3 0.00 0.00 0.00 86 1014.3
20260903092027 79 360 4.3 11.3 0.00 0.00 0.00 86 1014.1
20260903091947 79 360 4.3 11.3 0.00 0.00 0.00 86 1014.2
20260903091847 79 360 3.5 11.3 0.00 0.00 0.00 86 1014.2
20260903091748 79 360 4.3 11.3 0.00 0.00 0.00 86 1014.1
20260903091627 79 360 5.2 11.3 0.00 0.00 0.00 86 1014.2
20260903091532 79 360 5.2 11.3 0.00 0.00 0.00 86 1014.2
20260903091433 79 360 6.1 11.3 0.00 0.00 0.00 86 1014.2
20260903091334 79 360 4.3 11.3 0.00 0.00 0.00 86 1014.2
20260903091234 79 360 3.5 11.3 0.00 0.00 0.00 86 1014.2
20260903091135 79 360 4.3 10.4 0.00 0.00 0.00 86 1014.2
20260903091016 79 360 3.5 11.3 0.00 0.00 0.00 86 1014.2
20260903090938 79 360 3.5 11.3 0.00 0.00 0.00 86 1014.2
20260903090821 79 360 3.5 11.3 0.00 0.00 0.00 86 1014.2
20260903090723 79 360 3.5 11.3 0.00 0.00 0.00 86 1014.2
20260903090643 79 360 4.3 11.3 0.00 0.00 0.00 86 1014.2
20260903090523 79 360 5.2 11.3 0.00 0.00 0.00 86 1014.3
20260903090444 79 360 4.3 11.3 0.00 0.00 0.00 86 1014.3
20260903090324 79 360 5.2 11.3 0.00 0.00 0.00 86 1014.3
20260903090224 79 360 7.0 11.3 0.00 0.00 0.00 86 1014.2
20260903090125 79 165 6.1 11.3 0.00 0.00 0.00 86 1014.2
20260903090029 79 360 5.2 11.3 0.00 0.00 0.00 86 1014.3
20260903085930 79 360 4.3 9.6 0.00 0.00 0.00 86 1014.3
20260903085832 79 360 3.5 9.6 0.00 0.00 0.00 86 1014.3
20260903085732 79 360 3.5 9.6 0.00 0.00 0.00 86 1014.3
20260903085633 79 360 4.3 9.6 0.00 0.00 0.00 86 1014.3
20260903085534 79 170 4.3 10.4 0.00 0.00 0.00 86 1014.3
20260903085417 79 360 4.3 11.3 0.00 0.00 0.00 86 1014.3
20260903085318 79 360 4.3 11.3 0.00 0.00 0.00 86 1014.3
20260903085219 79 170 3.5 11.3 0.00 0.00 0.00 86 1014.4
20260903085139 79 360 3.5 11.3 0.00 0.00 0.00 86 1014.3
20260903085018 79 360 4.3 11.3 0.00 0.00 0.00 86 1014.2
20260903084918 79 360 6.1 11.3 0.00 0.00 0.00 86 1014.3
20260903084819 79 360 6.1 11.3 0.00 0.00 0.00 86 1014.3
20260903084739 79 360 5.2 11.3 0.00 0.00 0.00 86 1014.3
20260903084623 79 360 5.2 11.3 0.00 0.00 0.00 86 1014.3
20260903084543 79 360 5.2 12.2 0.00 0.00 0.00 86 1014.2
20260903084424 79 360 6.1 12.2 0.00 0.00 0.00 86 1014.3
20260903084323 79 360 6.1 12.2 0.00 0.00 0.00 86 1014.2
20260903084245 79 360 5.2 13.9 0.00 0.00 0.00 85 1014.3
20260903084122 79 360 5.2 13.9 0.00 0.00 0.00 85 1014.2
20260903084023 80 360 5.2 13.9 0.00 0.00 0.00 85 1014.3
20260903083943 80 360 6.1 13.9 0.00 0.00 0.00 85 1014.3
20260903083823 80 360 6.1 13.9 0.00 0.00 0.00 85 1014.3
20260903083748 80 360 6.1 13.9 0.00 0.00 0.00 85 1014.2
20260903083628 80 360 7.0 13.9 0.00 0.00 0.00 85 1014.2
20260903083528 80 360 7.0 13.9 0.00 0.00 0.00 85 1014.2
20260903083449 80 360 7.8 13.9 0.00 0.00 0.00 85 1014.2
20260903083329 80 360 7.0 13.9 0.00 0.00 0.00 85 1014.3
20260903083229 80 360 7.0 12.2 0.00 0.00 0.00 85 1014.2
20260903083126 80 360 6.1 12.2 0.00 0.00 0.00 85 1014.3
20260903083026 80 360 7.0 12.2 0.00 0.00 0.00 85 1014.2
20260903082931 80 360 5.2 12.2 0.00 0.00 0.00 85 1014.2
20260903082832 80 360 5.2 12.2 0.00 0.00 0.00 85 1014.2
20260903082752 80 360 4.3 12.2 0.00 0.00 0.00 85 1014.2
20260903082631 80 360 6.1 13.0 0.00 0.00 0.00 85 1014.2
20260903082532 80 360 7.0 13.0 0.00 0.00 0.00 85 1014.2
20260903082432 80 360 7.0 13.0 0.00 0.00 0.00 85 1014.2
20260903082333 80 360 7.0 13.0 0.00 0.00 0.00 85 1014.2
20260903082239 80 360 5.2 13.0 0.00 0.00 0.00 85 1014.2
20260903082116 80 360 5.2 13.9 0.00 0.00 0.00 85 1014.1
20260903082037 80 360 4.3 13.9 0.00 0.00 0.00 85 1014.2
20260903081916 80 360 6.1 13.9 0.00 0.00 0.00 85 1014.2
20260903081837 80 360 6.1 13.9 0.00 0.00 0.00 85 1014.2
20260903081758 80 360 5.2 17.4 0.00 0.00 0.00 85 1014.1
20260903081657 80 360 7.8 17.4 0.00 0.00 0.00 85 1014.1